GFSFLT1_700_spd_000.txt.gz
Wind_Speed
22 25 30 27 25 27 29 32 34 33 33 32 35 36 36 40 40 42 38 37 36 35 37 36 35 37 38 37 38 38 38 36
14 22 32 24 23 26 27 29 30 31 32 34 34 36 36 37 36 39 40 37 35 33 34 37 38 38 38 39 39 38 37 37
13 20 22 21 24 24 26 30 36 38 34 33 32 32 34 36 36 39 40 35 37 39 36 37 37 39 40 40 40 39 35 34
15 20 24 28 28 29 32 35 36 38 36 28 34 36 32 34 37 36 35 31 35 34 38 38 38 40 39 37 36 35 37 35
21 23 27 29 32 35 34 34 34 35 38 39 32 38 40 35 35 34 28 25 29 33 36 34 34 39 40 39 37 36 38 40
23 23 25 30 30 32 30 29 31 32 32 36 39 34 38 36 36 37 32 34 40 45 46 47 41 37 42 43 42 40 41 43
25 21 24 25 27 32 32 36 34 34 34 34 38 41 36 41 42 44 46 48 49 50 53 54 42 40 42 44 45 48 48 46
18 25 24 24 32 27 31 38 43 43 41 39 40 41 42 41 45 49 50 53 51 48 48 54 43 42 42 46 48 51 51 48
25 24 23 25 25 30 32 35 36 39 41 44 48 45 47 48 48 52 55 48 51 55 58 51 42 47 48 48 52 53 49 46
24 26 23 24 28 33 38 45 34 35 38 41 43 46 50 54 55 58 52 49 50 55 56 49 47 46 49 50 51 50 47 45
27 28 28 26 36 39 53 45 45 40 39 41 43 45 50 53 57 57 53 54 56 52 52 46 45 47 47 48 48 47 45 43
31 26 27 36 41 52 51 50 43 42 40 42 44 44 43 47 52 54 56 54 52 47 43 43 43 45 46 47 46 43 42 41
22 25 33 44 56 54 50 50 49 49 47 46 46 42 39 41 46 51 50 45 43 43 40 41 44 47 47 48 44 42 39 39
29 32 42 47 52 49 47 46 48 50 50 49 46 41 38 38 42 42 43 43 39 37 39 42 46 47 49 44 39 39 40 40
38 44 48 52 51 51 51 50 49 50 48 47 44 39 38 38 39 42 38 35 36 39 42 45 47 47 43 40 41 43 43 44
55 46 44 52 50 53 50 48 46 45 44 41 37 40 37 38 43 32 33 35 39 43 45 46 45 43 41 43 45 46 45 44
54 44 53 51 50 51 48 46 42 38 39 40 37 32 34 36 29 33 35 40 43 45 45 44 44 42 44 44 43 42 43 47
54 54 53 48 51 52 48 45 42 37 37 35 34 33 35 31 33 33 38 42 46 45 44 43 43 44 41 40 42 46 48 47
52 47 54 54 51 49 45 34 35 34 31 35 37 31 31 31 34 37 41 44 44 44 43 43 42 39 40 44 46 47 43 38

GFSFLT1_700_spd_003.txt.gz
Wind_Speed
16 13 20 28 33 28 25 25 24 26 27 30 35 35 34 36 37 37 30 28 30 32 34 33 35 37 38 36 36 36 37 38
18 20 21 26 29 24 25 26 26 29 31 30 28 30 28 28 29 33 38 35 30 28 33 38 38 37 35 35 36 38 39 40
11 11 16 22 22 23 25 26 28 29 27 30 31 30 30 31 31 33 35 36 35 34 32 34 35 35 37 36 35 35 37 36
22 22 22 23 25 32 30 30 27 32 34 33 32 34 35 31 33 34 36 36 32 30 32 32 35 39 41 40 37 33 33 32
25 27 28 25 37 34 28 30 29 34 36 37 37 33 33 35 34 34 37 39 38 35 35 35 36 37 43 45 45 45 37 33
26 29 25 31 35 33 34 36 42 39 40 35 35 37 34 33 35 37 40 41 39 34 40 41 40 37 36 42 46 44 39 39
24 28 30 23 30 30 33 36 41 42 45 41 40 41 40 42 41 39 38 42 44 47 46 43 40 42 53 57 44 52 46 41
30 31 26 23 27 28 28 32 37 38 46 40 39 41 43 42 41 45 43 44 46 47 49 53 54 55 58 51 58 54 40 39
25 23 27 31 33 33 37 34 41 45 48 38 37 39 45 48 48 47 50 51 51 53 55 59 59 58 63 56 49 41 42 42
24 28 26 29 32 36 37 40 49 52 46 37 34 38 42 42 44 50 54 54 55 56 61 58 57 58 52 46 42 42 40 43
32 33 37 32 40 35 37 50 50 49 49 48 48 45 43 40 42 48 51 52 55 59 54 51 46 47 44 39 38 40 42 44
24 24 27 32 34 45 53 48 48 50 53 53 48 46 42 41 39 43 47 48 46 44 42 42 44 40 37 37 39 40 42 42
31 32 36 42 48 57 51 49 52 50 52 54 53 49 41 38 35 37 41 36 36 38 42 40 35 36 37 38 40 41 39 37
41 40 43 48 55 49 50 51 49 50 56 56 53 46 39 38 33 29 30 31 36 36 34 35 35 36 38 39 38 37 36 36
49 52 51 46 48 48 50 48 53 53 54 53 49 41 38 34 34 29 31 34 31 33 34 34 36 37 37 37 37 38 39 41
55 53 50 47 50 48 50 52 54 52 44 45 48 44 39 37 38 36 32 30 33 35 38 40 39 38 38 39 41 43 43 42
49 44 51 49 48 50 53 52 50 44 38 40 38 38 40 42 39 30 32 32 36 40 40 40 39 39 40 42 41 40 41 42
50 48 48 47 50 50 51 49 45 39 30 31 30 32 38 31 37 34 32 37 39 41 39 39 39 40 38 37 39 43 45 46
50 47 48 52 50 49 50 46 38 30 25 25 27 28 29 31 30 34 37 39 40 38 39 38 39 35 36 39 42 44 47 43

GFSFLT1_700_spd_006.txt.gz
Wind_Speed
17 17 16 17 19 22 26 28 28 26 27 27 26 26 26 27 27 23 20 22 26 28 29 30 31 32 31 32 33 33 32 33
13 10 16 16 18 22 22 24 24 24 23 27 28 28 28 27 28 28 29 26 23 26 29 30 30 32 33 31 31 30 32 33
8 11 11 15 15 16 26 23 19 22 31 29 33 33 31 29 27 29 32 32 31 31 31 31 33 35 37 35 35 37 38 39
13 15 19 18 20 25 32 35 27 28 38 38 44 41 36 32 29 31 33 36 37 37 36 32 33 36 38 39 44 44 41 42
19 25 31 28 28 31 40 41 35 33 39 40 43 47 45 37 34 36 37 40 41 39 40 39 38 41 43 46 48 44 42 44
24 27 28 28 30 34 38 40 37 35 33 37 47 50 45 42 38 38 41 45 46 42 40 42 45 46 49 46 44 46 47 42
23 25 27 28 31 36 39 38 39 36 35 36 49 42 42 40 37 38 42 47 49 47 44 46 47 47 51 52 51 49 47 53
24 27 33 34 33 40 34 34 32 36 37 47 42 39 38 37 38 41 42 45 54 49 47 50 50 53 52 55 54 61 56 56
30 31 31 34 34 32 30 38 35 36 48 52 43 41 41 40 41 44 46 39 49 52 50 54 55 52 58 56 61 54 50 49
42 39 38 37 31 29 31 38 42 52 59 51 48 46 40 41 45 46 44 41 40 50 58 54 56 56 45 39 43 43 44 46
39 39 38 37 40 40 43 46 52 54 49 49 49 48 50 48 46 40 37 35 37 45 50 49 41 41 47 43 42 41 42 42
27 28 28 32 39 43 54 52 48 48 49 49 52 53 52 49 41 33 33 33 37 39 42 40 38 41 41 39 38 39 40 41
34 35 37 40 49 57 47 47 47 48 48 52 54 53 51 42 36 33 35 30 34 34 32 35 36 36 37 39 40 39 40 41
37 42 48 51 49 48 49 46 47 51 53 52 52 53 48 42 36 32 29 27 26 32 35 34 35 36 38 38 39 39 39 39
38 48 47 43 46 44 45 48 51 52 50 49 48 46 41 37 34 32 31 32 33 33 33 34 35 37 38 38 38 38 37 38
44 49 42 48 46 44 49 50 50 51 51 47 42 34 38 35 36 37 36 28 27 32 33 36 39 39 38 39 38 41 42 42
47 44 47 40 45 47 47 50 50 50 48 40 31 28 35 35 33 33 33 34 33 34 37 40 40 38 39 40 42 42 42 42
40 41 42 45 46 49 51 50 50 47 39 26 20 23 26 31 35 36 34 35 37 39 41 40 39 38 39 40 40 41 42 44
37 40 43 46 48 51 52 50 46 37 29 24 21 22 25 28 28 31 33 38 41 42 40 38 38 38 38 37 40 42 44 44

GFSFLT1_700_spd_009.txt.gz
Wind_Speed
10 9 10 9 11 14 17 17 20 21 15 21 24 24 27 29 29 27 26 26 27 28 28 30 31 30 28 28 28 29 30 32
9 6 4 8 11 16 17 17 23 26 27 30 31 32 30 33 33 31 29 27 27 28 29 30 32 33 32 30 30 30 30 31
6 7 11 11 11 16 15 21 27 27 28 31 34 39 34 38 36 33 32 32 32 32 32 32 34 36 36 37 37 36 35 35
9 13 18 19 18 15 21 27 32 35 35 35 36 41 38 41 35 32 33 35 36 37 38 39 41 42 40 40 41 42 39 39
14 20 24 27 28 30 32 33 36 39 38 43 40 42 41 48 43 38 36 36 37 37 39 42 46 47 44 44 45 46 47 46
23 25 30 32 33 32 33 34 35 36 38 40 40 42 43 54 48 43 42 41 42 44 43 44 46 44 47 43 47 47 49 51
22 26 28 33 31 33 35 35 36 40 40 40 39 42 49 55 46 45 46 45 43 45 46 46 48 52 58 47 49 56 56 55
24 28 34 29 29 30 32 34 36 39 42 45 46 51 51 46 46 46 45 46 48 48 48 46 49 55 58 55 57 63 64 63
28 26 27 26 26 29 34 37 39 42 46 54 51 47 46 45 46 48 49 50 50 50 47 42 47 53 56 58 63 66 56 50
24 28 27 26 31 34 39 43 46 51 54 47 48 47 46 48 50 51 50 46 41 37 34 35 42 50 58 61 57 49 49 45
25 26 28 32 35 37 42 49 54 52 49 45 46 50 52 52 52 50 43 35 30 30 30 30 35 44 41 42 44 42 43 43
30 32 34 34 38 43 49 50 47 48 48 48 50 52 55 57 54 49 36 31 30 30 29 28 37 40 39 39 38 39 40 42
30 33 37 41 42 45 46 49 49 45 46 46 51 52 53 53 50 42 32 31 31 24 26 28 33 36 37 39 41 44 45 45
40 42 47 51 47 44 46 42 42 43 47 49 52 51 50 48 39 33 33 34 31 30 31 30 33 34 36 40 43 43 43 43
45 46 45 43 43 40 41 42 43 48 52 53 52 50 46 34 30 35 35 35 33 32 31 28 30 32 35 39 41 41 41 40
51 46 42 43 40 41 41 44 49 54 53 51 49 44 31 28 33 37 35 32 31 31 38 37 36 39 41 43 43 43 42 41
48 44 41 39 39 42 45 49 52 52 53 50 41 29 25 25 24 23 29 29 31 34 38 42 42 43 44 44 45 44 42 41
50 45 38 33 40 45 46 48 51 52 49 41 32 28 24 28 30 33 34 28 28 37 40 42 43 43 43 44 44 42 41 40
47 42 38 38 43 46 48 50 49 44 38 33 33 31 30 28 29 29 29 32 40 40 41 41 41 41 42 42 41 40 40 40

GFSFLT1_700_spd_012.txt.gz
Wind_Speed
10 10 10 4 9 14 17 19 17 19 23 23 28 28 31 33 33 34 36 30 28 29 29 29 30 29 28 29 31 32 32 31
12 10 5 5 6 13 19 20 21 26 28 26 26 27 29 30 32 33 36 32 30 30 30 31 33 34 31 31 30 31 31 31
10 9 10 15 16 13 14 16 21 26 29 30 31 30 32 30 33 35 38 39 36 36 36 35 37 38 37 37 39 39 39 37
7 12 15 19 22 17 17 20 25 28 28 30 36 38 40 42 39 42 44 48 40 39 41 42 41 42 42 42 43 45 44 44
12 16 21 21 22 24 23 24 27 30 32 34 37 40 43 42 44 51 50 45 40 41 45 46 45 44 45 42 44 49 48 49
19 20 21 24 26 23 25 26 28 32 33 36 38 41 45 49 54 51 46 46 45 44 46 48 49 49 50 48 49 52 53 54
17 20 26 26 23 24 26 28 30 32 34 37 39 44 49 48 47 48 47 47 47 47 49 51 52 54 53 52 55 57 57 59
21 25 28 25 25 27 29 31 33 35 36 39 45 44 42 45 47 48 47 47 48 50 50 52 52 52 51 48 49 56 60 63
22 28 26 25 28 30 32 34 36 38 43 42 41 44 48 47 44 44 48 51 51 51 51 48 45 41 38 36 39 52 65 61
23 23 25 27 27 30 34 37 41 44 43 46 49 48 45 43 46 50 52 51 51 51 42 36 32 30 30 35 44 50 44 46
20 24 26 29 34 38 43 50 54 54 51 47 42 42 46 50 51 54 52 51 48 38 31 27 27 26 28 35 43 44 44 41
28 30 33 38 45 50 51 52 49 49 42 42 43 48 53 54 56 57 54 49 39 32 29 30 29 26 28 30 33 35 37 37
32 36 41 46 51 54 51 47 44 40 41 44 49 53 53 55 56 52 48 40 33 33 33 32 27 29 30 32 33 34 37 40
38 42 46 47 46 46 43 42 40 40 45 49 50 52 56 55 50 44 36 32 33 36 34 30 29 29 30 33 35 36 38 41
48 48 45 48 45 41 41 38 39 43 47 51 55 56 55 47 41 32 31 33 32 30 30 31 32 34 35 36 38 39 40 40
45 48 51 51 49 50 45 39 44 46 49 53 55 54 47 37 30 29 26 26 28 29 24 24 31 34 38 41 43 43 42 41
49 49 57 51 44 39 42 47 47 50 53 54 47 41 36 34 32 31 32 29 25 27 28 34 38 39 41 42 44 44 43 42
49 54 50 42 40 43 42 48 52 54 52 46 37 37 35 37 33 32 32 33 34 35 36 37 38 38 40 41 42 43 42 40
46 46 37 37 40 43 46 48 50 49 41 35 31 35 29 34 35 36 34 33 34 37 38 38 38 38 40 41 41 40 39 37

GFSFLT1_700_spd_015.txt.gz
Wind_Speed
12 10 10 9 7 9 14 18 19 20 24 26 24 22 22 23 27 27 29 32 34 36 30 30 33 34 33 33 33 33 33 32
12 12 10 8 9 9 9 14 17 19 22 24 24 23 23 24 27 28 29 33 38 40 38 33 32 34 35 37 38 38 39 36
8 7 7 12 14 10 7 11 14 18 21 25 27 28 29 31 33 34 38 41 44 43 41 39 38 39 40 39 41 44 43 41
4 9 12 15 16 15 13 13 17 21 25 28 30 32 34 37 38 40 43 43 42 42 42 42 42 43 44 44 44 45 48 47
10 13 15 13 18 19 15 18 21 25 29 31 33 34 36 40 42 46 46 42 45 44 43 41 40 43 45 47 49 50 50 52
13 14 14 18 22 19 20 22 26 29 33 36 37 38 41 42 46 48 42 45 47 44 43 43 46 46 47 50 54 56 57 54
16 18 20 23 25 28 28 29 32 35 37 38 40 45 49 48 42 44 46 44 42 44 47 48 48 48 50 51 53 55 55 52
22 22 24 25 28 31 31 34 37 41 45 48 45 50 52 51 45 42 44 47 49 51 53 53 54 54 54 51 47 45 43 40
17 21 26 30 31 32 37 40 41 44 45 50 46 42 41 39 40 43 47 50 53 54 56 55 54 51 43 39 35 32 32 34
20 21 25 28 32 35 38 40 42 48 49 45 40 41 41 41 43 49 51 51 53 55 54 50 45 37 32 29 28 29 36 38
19 21 25 29 34 39 45 49 51 50 47 44 44 40 40 43 46 48 52 53 51 47 42 37 31 30 29 34 35 31 34 34
24 28 33 39 45 49 50 49 48 46 46 46 44 43 43 45 48 50 52 48 44 38 33 30 30 30 31 27 30 31 32 33
30 36 41 45 45 43 45 44 44 45 47 46 39 44 50 52 54 54 49 41 33 29 29 30 33 36 32 29 28 28 28 30
38 40 38 41 43 43 48 46 44 43 38 42 43 47 51 52 49 41 34 30 27 27 28 27 28 29 30 32 33 32 34 36
43 42 43 44 43 47 42 35 36 40 41 46 50 52 51 44 37 34 31 30 28 28 30 31 29 30 30 32 34 34 37 38
47 50 49 52 46 39 31 33 39 41 45 49 51 51 46 37 37 36 34 31 30 31 31 28 31 34 37 37 36 37 37 37
48 48 49 46 38 35 37 41 45 47 48 48 46 40 34 34 36 33 34 36 32 32 32 32 31 33 34 34 35 37 38 38
48 41 48 37 37 41 39 41 44 46 45 43 39 33 32 33 35 35 33 30 29 30 30 32 33 34 35 35 36 37 37 37
36 43 36 39 40 40 41 44 46 45 43 40 36 34 33 35 35 31 29 29 29 30 33 35 36 35 36 37 37 36 36 36

GFSFLT1_700_spd_021.txt.gz
Wind_Speed
17 13 17 17 16 16 19 20 20 23 26 25 26 26 24 26 29 30 31 32 35 36 37 36 35 38 37 37 37 34 35 35
28 21 19 19 18 18 15 17 19 20 24 26 27 27 28 30 34 38 37 39 41 43 43 42 41 44 41 40 38 36 35 35
22 20 18 16 13 14 15 16 17 19 24 26 27 29 32 36 37 41 45 48 47 49 49 51 47 49 46 42 39 38 39 38
13 13 13 14 15 18 21 22 26 24 23 30 32 34 37 37 43 45 44 47 50 54 55 53 47 45 43 41 41 42 43 41
10 12 13 15 18 21 24 27 29 28 28 34 35 37 37 42 47 50 52 50 52 51 49 48 45 41 44 44 43 44 47 49
12 14 17 19 23 27 29 32 33 33 34 35 37 40 42 44 49 56 55 50 50 52 50 46 42 44 46 46 47 49 53 56
16 18 22 28 31 27 29 28 30 33 34 39 43 46 48 51 53 54 55 51 49 48 49 48 49 50 49 55 57 57 58 60
18 22 22 26 29 28 26 27 30 37 42 44 46 49 50 49 50 49 49 49 50 51 50 50 50 56 61 61 59 55 51 50
26 27 26 25 28 28 26 27 33 36 40 43 44 45 45 44 45 46 48 49 49 49 51 55 59 57 53 48 46 44 41 35
18 16 15 23 26 28 32 34 38 40 39 41 41 41 42 43 43 41 42 45 48 51 54 53 50 44 42 37 34 33 34 34
14 19 21 24 30 34 40 42 39 39 37 38 39 40 39 40 42 46 49 52 52 49 41 37 36 36 32 31 30 34 35 32
17 21 26 26 28 30 33 36 39 38 36 37 38 38 42 45 48 50 51 50 45 38 32 30 31 30 30 32 32 37 35 35
20 21 26 31 32 36 39 39 36 38 37 37 38 42 44 46 47 49 48 41 31 27 29 29 32 36 38 40 39 40 38 35
25 25 27 28 35 38 37 36 37 36 35 38 39 42 44 46 48 46 39 30 32 29 31 33 34 35 38 40 38 36 35 34
28 30 33 38 37 33 34 33 33 36 38 39 42 44 45 45 44 41 35 34 31 34 35 33 35 34 33 33 31 32 34 35
36 43 38 37 31 31 31 33 35 38 39 41 43 44 44 42 39 36 33 34 38 35 32 31 32 31 31 31 34 36 36 35
44 35 34 30 26 25 31 33 36 40 41 43 42 40 40 36 36 37 36 37 33 31 30 30 30 30 36 37 37 37 36 36
35 34 29 24 26 28 32 35 38 42 44 38 36 40 39 38 36 37 36 33 30 28 28 30 33 34 38 35 34 35 35 34
36 30 26 27 28 29 31 34 37 33 32 38 43 41 39 34 32 30 32 30 28 27 29 32 34 32 36 35 34 35 37 37

GFSFLT1_700_spd_024.txt.gz
Wind_Speed
19 21 21 23 22 21 17 20 24 24 24 23 27 30 30 30 33 31 37 37 38 39 42 44 45 45 46 48 49 48 45 44
24 25 29 27 19 20 22 22 19 18 21 24 25 29 29 31 33 37 40 38 43 46 47 48 49 49 51 52 49 49 45 43
26 24 26 21 18 17 15 18 19 20 25 24 25 28 31 34 35 40 48 46 49 48 53 53 53 52 49 45 44 46 44 41
28 29 21 14 13 15 18 22 24 26 28 30 29 31 34 36 41 44 47 45 47 51 52 50 50 50 47 44 42 43 46 43
12 9 11 14 16 19 22 27 31 32 31 32 33 34 38 40 43 45 46 47 48 50 49 50 51 51 49 48 48 48 47 48
8 13 17 18 20 21 26 29 32 35 31 30 31 34 38 41 43 46 46 47 49 49 50 51 51 51 51 53 52 51 51 51
12 16 19 26 29 32 30 27 26 29 34 32 34 37 41 43 44 46 46 46 46 45 46 48 48 51 50 51 53 53 54 52
5 12 18 22 25 30 32 30 28 30 35 41 45 47 44 43 42 41 42 41 43 44 47 49 53 55 56 55 52 48 43 43
9 13 14 17 23 29 32 31 32 37 41 43 40 42 42 41 41 40 40 44 47 50 54 53 53 52 51 49 38 37 30 30
8 11 17 25 28 30 33 36 39 40 42 42 40 40 38 41 41 41 44 45 46 48 49 49 51 42 37 31 38 32 32 30
10 15 19 27 30 34 37 42 42 45 43 41 38 39 40 41 42 42 44 45 48 49 51 43 33 31 34 34 33 32 34 35
12 20 30 32 35 36 41 40 43 44 39 38 37 39 41 43 42 43 45 46 47 45 36 34 35 35 37 39 40 39 37 40
21 28 32 36 36 43 39 40 43 40 38 35 39 40 42 41 41 43 46 45 43 38 32 33 35 35 36 35 37 41 43 37
29 32 30 35 48 39 37 38 39 41 37 39 37 40 43 44 45 45 45 42 39 35 33 36 38 36 35 34 34 34 33 30
32 37 38 47 41 39 36 34 38 40 40 38 41 44 46 47 42 43 42 40 37 35 34 33 33 34 33 33 32 32 33 35
45 38 44 39 36 34 31 34 34 41 40 43 43 45 47 42 46 42 39 36 36 34 32 31 31 31 30 32 34 35 36 36
39 40 40 39 27 27 30 31 39 41 41 43 45 38 40 40 47 42 37 37 37 36 32 30 29 30 32 35 34 32 33 35
35 37 29 26 27 26 29 33 34 38 35 43 35 39 42 46 47 43 37 37 37 36 32 30 30 31 34 36 35 34 36 37
35 26 28 32 32 33 30 34 38 44 46 41 46 46 37 42 44 43 40 36 37 33 30 33 31 32 35 37 37 37 39 38

GFSFLT1_700_spd_027.txt.gz
Wind_Speed
24 25 22 23 24 23 27 28 27 26 26 22 23 24 25 28 31 32 34 37 37 38 44 44 46 46 46 45 46 45 47 47
26 28 25 26 29 26 24 23 26 23 23 21 24 29 28 27 28 29 32 36 39 46 44 47 50 49 48 46 45 45 46 43
26 26 26 28 27 22 21 19 17 22 25 28 29 27 26 27 31 36 40 45 46 48 51 51 49 49 48 47 46 48 47 43
22 23 23 20 15 15 17 19 20 24 29 31 31 31 31 30 31 34 37 42 45 49 49 46 46 47 48 48 48 46 46 45
25 19 14 12 14 17 21 23 26 28 28 29 31 32 32 32 34 36 40 43 44 44 44 45 46 46 47 47 49 49 49 49
15 13 14 15 17 19 22 27 31 33 33 32 31 32 34 37 43 44 43 42 42 41 43 44 44 45 47 49 51 53 53 53
11 14 17 19 22 26 28 27 27 27 31 36 40 42 42 43 43 42 41 40 40 42 43 44 46 47 48 49 50 49 47 46
12 13 17 22 26 28 31 30 31 34 37 39 38 41 44 44 44 43 43 43 42 42 44 45 46 48 48 49 46 39 33 28
12 16 19 21 23 27 32 35 36 41 44 45 42 43 44 43 42 41 47 47 45 45 46 47 47 47 47 43 35 27 28 37
13 12 21 26 30 32 36 37 41 44 48 48 45 44 44 42 40 44 43 43 44 45 46 46 47 46 39 35 34 34 36 38
15 21 26 27 29 35 36 39 43 49 44 44 43 43 44 42 44 43 43 42 42 43 44 44 40 38 38 37 38 38 40 41
22 25 25 29 36 41 39 45 47 44 43 42 42 42 42 43 41 42 44 44 41 41 42 41 38 34 33 37 36 38 35 36
24 25 27 42 42 40 38 44 43 44 46 44 41 43 41 44 46 47 47 43 43 43 41 39 37 38 38 36 33 35 35 34
28 31 36 41 43 40 45 42 42 41 43 41 43 48 47 46 53 41 42 43 44 44 38 36 36 35 35 35 34 34 33 32
27 34 45 43 38 42 44 40 42 40 40 44 48 43 45 52 57 40 35 42 43 38 37 37 36 35 34 33 32 32 32 33
41 46 41 39 41 40 38 36 37 38 42 41 45 45 54 53 47 49 43 37 41 42 41 38 38 33 28 28 30 32 33 34
44 39 39 40 38 37 35 32 32 32 37 44 46 48 49 51 47 47 30 33 39 42 43 38 36 27 29 32 33 36 37 39
39 38 36 31 32 34 36 38 42 39 41 45 47 52 46 47 47 38 34 39 44 44 43 36 30 31 33 36 37 40 41 41
35 31 25 26 30 36 42 44 44 46 49 55 49 46 46 40 37 34 41 30 39 41 36 32 30 32 34 37 40 43 40 38

GFSFLT1_700_spd_030.txt.gz
Wind_Speed
23 24 21 18 18 18 21 18 18 22 23 20 16 19 23 26 31 33 32 34 36 37 38 39 45 46 46 49 48 47 46 48
26 27 20 22 21 21 20 23 24 21 15 14 17 23 26 28 31 32 34 35 38 39 40 45 48 49 51 51 50 47 47 48
27 28 23 22 23 26 26 19 16 16 16 19 21 23 24 25 28 31 33 36 38 40 44 47 49 50 50 49 47 47 46 46
23 22 25 27 24 14 15 17 19 20 23 27 28 28 28 28 31 33 34 36 39 43 46 47 47 46 46 48 47 46 47 47
17 19 22 20 19 19 18 20 23 26 26 24 23 23 25 30 32 35 38 40 40 40 40 44 46 46 47 46 48 48 48 48
22 19 16 18 21 23 24 25 27 27 27 28 32 36 37 37 38 40 40 40 42 42 42 46 47 47 48 48 49 50 49 49
10 8 12 18 19 21 22 26 29 30 32 35 38 41 42 42 42 43 44 43 43 42 47 48 47 46 46 46 47 48 47 46
11 15 21 16 23 25 26 30 35 38 39 41 44 45 45 44 46 47 46 45 44 47 47 46 45 46 47 47 46 45 41 36
17 19 21 22 27 28 30 33 41 42 41 44 44 42 42 43 46 46 44 45 47 47 48 49 49 50 48 45 43 40 37 37
15 15 15 19 24 27 29 35 45 45 45 46 43 44 44 44 44 44 43 41 45 50 51 49 46 44 44 44 43 41 40 39
15 16 19 25 30 31 37 41 46 47 45 47 44 42 42 43 44 42 44 44 53 44 40 43 39 39 40 40 38 38 40 39
19 22 26 28 30 33 44 47 46 44 47 43 41 42 40 46 45 46 48 46 53 41 38 38 39 37 37 38 40 38 37 36
25 25 28 32 36 44 45 41 42 46 44 43 42 43 43 48 47 49 48 47 41 39 42 32 36 32 33 36 37 37 36 35
24 27 31 36 42 43 41 43 44 41 40 43 43 43 46 47 53 54 49 54 51 51 32 25 34 33 33 35 35 32 30 31
27 28 36 44 44 43 43 40 38 41 42 43 47 47 47 48 44 50 52 44 48 34 34 36 36 33 30 32 32 30 30 32
30 37 44 44 44 43 40 39 41 41 42 44 47 46 48 51 47 46 46 46 39 37 29 32 38 30 30 32 33 30 31 35
36 42 42 42 41 39 40 41 41 41 43 44 46 52 50 41 45 46 46 40 30 32 30 34 36 32 31 34 32 32 35 39
42 43 43 38 36 38 38 37 43 45 49 51 49 38 38 41 50 46 43 39 39 34 42 32 34 33 34 34 33 36 39 42
42 42 35 35 35 34 38 44 48 47 46 42 38 40 41 45 47 44 39 35 29 24 29 30 30 31 33 34 35 38 41 42

GFSFLT1_700_spd_036.txt.gz
Wind_Speed
14 15 16 15 16 19 25 32 36 21 17 11 10 14 18 21 23 25 27 28 30 33 37 40 42 45 48 51 53 54 56 58
20 21 22 21 21 19 16 21 24 13 8 14 16 18 19 21 24 27 29 31 33 36 39 43 46 49 52 54 55 55 54 55
23 21 16 11 12 13 17 18 20 12 10 13 16 20 21 22 24 26 30 34 37 39 42 46 48 47 47 48 49 50 50 52
9 8 9 11 11 11 10 11 12 15 16 15 17 20 21 23 26 30 33 35 36 39 42 45 47 51 52 52 52 52 53 52
5 7 5 5 5 7 9 11 13 14 14 19 26 32 34 35 36 36 39 42 45 45 45 46 47 48 48 49 51 52 54 55
5 5 5 1 7 6 7 15 20 21 23 29 35 39 42 41 40 41 43 44 44 46 48 49 49 51 52 51 50 51 51 47
13 12 11 6 8 15 25 23 24 26 29 35 38 42 42 42 42 42 42 43 44 46 46 49 51 49 49 49 50 48 45 44
5 10 15 20 29 21 22 23 26 29 31 36 41 43 41 42 43 43 43 44 44 44 47 48 50 51 51 48 48 44 42 38
13 22 27 20 20 20 23 24 29 30 34 40 42 42 42 43 43 43 45 47 47 47 47 48 50 52 49 52 45 45 34 31
25 27 21 21 24 27 27 28 31 33 37 45 43 43 43 43 44 46 46 47 49 51 49 50 50 50 48 43 43 43 39 30
20 17 22 23 29 28 29 32 34 35 42 43 42 41 42 44 45 46 49 51 52 53 53 51 46 43 38 45 28 23 25 30
21 22 23 28 29 30 32 32 34 39 39 40 39 41 43 44 47 51 53 55 54 53 45 44 41 39 38 30 21 23 27 30
23 24 27 30 31 31 32 37 40 38 39 39 41 43 44 46 49 52 55 53 51 49 47 44 42 40 34 31 26 22 26 30
24 26 29 31 32 32 37 39 35 37 39 40 42 43 46 49 51 51 49 49 48 45 43 41 37 34 25 35 30 28 31 35
27 29 31 31 34 36 35 37 37 38 39 41 43 45 47 48 48 48 46 44 42 41 39 36 30 26 25 24 27 29 35 35
28 29 31 36 37 35 36 36 38 40 42 43 45 46 47 47 46 44 42 39 38 36 34 31 26 23 24 24 26 32 34 34
28 30 36 38 35 34 35 37 39 41 43 45 45 45 45 45 44 42 37 37 34 33 30 24 22 23 25 25 30 32 32 34
29 34 35 35 34 34 35 38 41 43 44 44 44 45 45 43 42 41 39 36 33 32 26 24 27 24 25 27 31 31 33 35
32 34 35 35 33 33 36 39 40 41 42 43 44 44 43 41 42 41 38 35 32 29 25 26 22 22 24 27 28 30 32 35

GFSFLT1_700_spd_039.txt.gz
Wind_Speed
14 15 16 17 18 19 23 30 36 36 17 20 1 6 11 15 20 25 27 28 30 32 35 38 41 43 46 48 49 50 52 54
16 18 19 22 24 24 21 11 13 14 8 9 9 11 13 18 21 23 25 27 31 34 37 39 40 41 43 46 47 49 51 54
19 19 13 11 12 11 10 11 9 9 12 9 7 9 12 16 20 24 27 30 32 34 35 38 40 42 44 46 48 49 50 51
13 8 7 8 9 5 3 5 9 11 6 5 12 18 23 27 28 27 28 31 34 36 39 40 42 43 44 45 47 49 49 50
8 6 6 7 5 3 4 5 9 10 11 16 22 26 30 34 35 36 37 37 38 39 41 43 45 47 47 48 48 48 48 46
9 5 5 5 5 4 6 13 14 15 20 24 24 29 33 37 38 38 38 38 39 41 42 44 45 47 49 48 47 47 46 45
10 6 9 6 4 14 18 22 26 23 22 25 27 32 37 39 38 38 38 40 41 42 43 45 46 47 47 48 49 48 46 45
10 7 8 12 21 26 11 14 20 22 25 28 31 35 39 38 37 38 40 42 44 45 46 46 47 48 49 48 48 44 32 38
10 11 17 18 17 16 16 20 24 25 28 31 34 39 39 38 39 41 44 46 47 48 49 50 50 49 47 44 40 35 38 40
12 16 18 14 18 19 21 24 26 29 31 35 39 39 38 41 43 44 46 47 49 52 53 52 49 46 43 38 33 35 31 29
15 16 17 20 21 22 23 26 28 31 35 40 40 38 41 41 42 44 47 49 50 51 50 49 46 41 38 35 34 30 22 25
17 18 21 22 23 25 27 30 35 39 40 37 36 39 39 42 43 45 46 48 49 50 48 44 40 38 33 33 30 28 32 27
21 21 23 24 28 29 33 37 40 41 33 34 37 39 41 42 42 44 46 47 47 46 42 41 38 34 32 29 22 30 30 28
24 25 26 29 33 34 34 39 40 33 34 35 38 39 40 41 43 44 45 45 43 42 40 37 33 29 26 25 23 22 24 25
27 27 30 33 33 33 37 38 32 32 34 36 37 38 40 42 43 44 44 43 43 40 37 34 31 27 22 21 22 22 25 29
28 29 31 29 31 36 37 33 32 34 34 36 39 40 41 42 43 42 43 42 42 38 35 33 30 26 23 24 24 24 28 31
29 27 27 30 33 33 33 34 32 34 36 39 40 41 41 42 42 43 43 43 41 37 34 31 28 26 27 23 23 25 28 30
25 25 27 29 31 33 31 30 32 35 37 39 40 41 42 42 43 43 42 42 41 37 32 29 26 25 21 21 23 25 28 31
25 27 28 31 31 30 30 31 33 36 38 39 40 42 42 42 42 41 41 41 39 33 28 26 20 18 20 21 22 25 28 30

GFSFLT1_700_spd_042.txt.gz
Wind_Speed
16 17 18 18 18 19 21 23 24 29 25 11 21 1 8 13 15 17 22 25 27 30 33 35 37 39 41 41 44 45 45 48
14 15 17 20 21 23 23 21 13 13 2 2 3 5 8 9 13 16 18 21 25 29 32 33 35 39 40 41 42 44 45 47
16 17 19 20 17 14 10 11 8 4 4 7 6 4 7 10 13 17 20 24 28 30 32 35 36 37 39 40 42 43 44 47
18 17 14 11 11 11 12 7 4 4 7 5 7 10 12 16 19 24 28 30 30 31 32 34 37 39 40 42 43 44 46 45
16 13 11 10 9 8 5 3 5 7 11 14 13 13 16 23 27 31 33 34 35 34 36 38 39 40 41 42 44 45 45 45
15 13 10 10 10 10 7 9 12 19 20 18 17 20 24 28 31 35 37 37 36 36 37 38 39 40 42 45 45 44 42 40
16 15 11 10 8 9 18 21 21 18 17 21 22 24 29 33 36 37 38 38 38 39 39 40 42 44 45 45 41 29 27 27
17 12 10 8 11 18 14 14 15 19 20 23 25 29 34 37 38 37 37 37 38 40 43 44 45 45 46 42 26 25 28 29
17 12 9 11 15 12 14 16 19 21 23 26 31 32 36 39 36 37 37 40 42 43 44 46 47 47 45 34 31 32 29 30
17 14 13 14 13 15 18 20 23 24 26 30 35 36 39 35 37 38 39 40 42 44 45 46 46 45 42 33 27 29 32 32
20 16 15 15 17 19 21 24 25 29 30 35 38 40 34 35 36 38 39 40 41 43 44 45 43 41 37 30 27 31 29 25
21 20 18 19 20 23 25 27 29 31 35 37 40 34 32 34 37 38 39 41 42 43 43 42 41 38 34 30 28 25 24 23
23 22 23 24 25 26 28 32 36 34 37 39 31 31 33 35 37 38 40 41 41 42 42 42 41 37 32 29 27 24 23 24
27 25 27 29 29 31 33 37 34 38 38 30 32 33 34 36 38 39 40 40 41 41 42 42 40 36 33 30 26 22 24 25
30 31 31 32 32 34 39 33 35 35 35 33 32 33 35 37 39 39 40 41 41 41 41 41 38 34 32 26 23 25 25 25
30 33 33 33 33 36 35 33 33 35 31 30 32 34 36 38 39 40 40 41 40 40 40 40 37 31 28 26 25 23 23 24
29 32 33 32 33 36 32 34 34 28 27 31 33 35 37 38 39 40 41 41 41 41 40 38 33 30 27 24 20 21 22 25
26 31 31 31 34 34 33 34 29 26 29 32 34 36 37 38 40 41 41 41 39 39 39 35 30 28 23 19 19 20 21 25
25 29 29 32 35 37 35 28 23 26 30 33 37 37 38 40 41 41 41 39 38 38 36 31 28 25 20 19 18 19 21 25

GFSFLT1_700_spd_045.txt.gz
Wind_Speed
19 21 22 19 20 19 18 20 21 23 26 22 17 6 12 9 14 17 23 22 22 23 26 29 31 35 37 40 40 40 41 43
19 21 19 20 23 21 22 21 25 21 15 7 4 6 11 12 12 13 16 18 18 22 28 31 31 34 38 40 40 41 43 44
21 21 21 22 23 24 24 21 16 12 8 4 2 6 10 11 13 16 18 20 23 27 28 30 33 34 38 40 40 42 43 44
22 20 20 20 21 17 14 14 11 8 4 4 8 10 11 14 17 19 21 24 28 29 31 32 34 36 38 40 42 43 44 43
21 21 19 16 14 13 12 9 7 6 8 12 13 14 14 16 21 27 31 31 33 33 35 36 37 38 39 40 40 42 41 40
21 19 17 15 14 11 11 10 11 14 16 16 15 15 19 21 25 30 33 35 36 38 37 38 38 39 40 40 41 41 40 39
19 19 18 16 12 12 13 13 19 16 17 18 20 22 23 26 30 30 32 31 36 37 40 40 41 41 41 42 41 40 37 31
21 20 19 15 13 12 15 19 17 17 18 21 23 25 26 30 35 34 32 34 36 38 40 39 40 41 41 42 41 38 30 29
21 20 18 16 14 15 17 18 19 19 22 23 26 28 30 35 37 37 32 34 37 38 40 40 41 42 42 41 38 36 28 29
21 22 19 19 17 19 18 21 23 24 25 27 31 33 34 36 38 34 34 35 37 38 39 41 41 41 41 40 37 31 27 30
21 21 22 22 21 22 20 23 27 27 29 33 35 37 36 38 33 33 33 35 37 38 39 41 41 41 41 39 33 29 25 31
22 22 25 25 26 25 24 26 29 32 34 37 36 36 38 31 31 33 35 36 37 39 41 41 40 40 40 38 34 31 30 30
21 23 29 29 28 30 29 29 34 35 39 40 33 36 31 32 33 34 36 37 38 40 40 40 40 39 39 40 36 30 26 22
24 28 32 32 31 32 33 33 35 38 43 38 33 35 33 32 33 34 36 38 39 40 40 39 40 39 38 38 34 30 26 27
28 31 31 33 35 36 35 37 37 42 43 30 32 34 32 32 33 35 38 39 40 41 40 39 38 39 39 35 30 28 28 28
29 32 33 36 38 40 39 39 40 42 38 32 34 32 30 32 35 38 38 40 41 41 41 41 39 38 37 31 29 27 26 25
26 29 33 37 40 40 38 41 40 44 37 36 29 27 30 34 37 38 39 40 40 40 37 38 37 37 33 30 26 22 23 24
25 28 32 36 39 36 38 40 45 41 38 32 29 29 31 33 36 38 39 40 40 38 37 36 35 36 30 28 23 23 23 22
25 28 32 34 35 36 40 43 42 42 31 26 27 31 31 34 37 38 39 40 38 36 36 36 34 34 29 25 24 22 22 22

GFSFLT1_700_spd_048.txt.gz
Wind_Speed
15 17 14 15 10 8 15 16 15 18 21 22 17 14 14 10 11 13 22 21 21 22 21 23 26 33 35 36 38 37 38 39
23 16 20 21 23 19 18 16 19 22 22 17 13 9 7 7 8 12 17 18 17 21 25 27 29 33 35 37 38 39 39 40
19 20 20 23 26 22 18 22 22 21 16 14 11 7 8 10 12 16 16 18 22 25 27 31 33 33 34 37 37 38 39 40
23 22 24 27 28 25 23 22 16 15 12 11 10 12 12 14 16 19 19 21 22 26 28 30 34 35 35 35 37 39 40 38
25 25 28 26 24 26 19 17 15 13 11 13 12 15 16 19 20 24 23 26 27 30 31 34 33 34 35 36 36 37 38 41
24 24 24 22 21 18 19 15 12 11 13 14 14 14 15 17 20 25 28 32 37 36 36 36 37 38 39 39 39 40 40 41
26 22 24 17 15 16 14 13 15 14 16 17 15 17 20 24 25 27 30 33 34 33 36 38 38 38 39 39 39 39 40 40
27 25 22 21 16 15 13 14 19 19 18 18 20 21 23 27 30 31 34 34 32 31 34 37 37 38 38 39 39 39 40 40
21 21 21 19 18 16 15 17 22 20 19 20 21 25 28 30 33 34 35 36 32 33 35 36 37 39 40 41 40 39 38 38
20 21 21 21 21 19 18 21 24 23 23 25 26 28 31 33 36 37 37 34 32 33 35 37 38 39 41 41 41 39 37 37
20 22 23 24 25 24 22 22 27 26 28 28 30 33 34 37 38 36 34 33 31 34 37 39 40 41 41 41 42 39 35 35
19 23 24 25 28 28 27 23 27 31 34 32 35 38 41 45 38 32 34 33 33 36 38 39 40 40 39 40 41 39 38 35
20 21 26 28 30 29 33 29 31 35 36 36 36 39 42 44 40 34 34 33 33 36 39 40 40 39 39 39 39 37 37 34
21 23 27 29 34 38 37 34 34 39 37 35 37 44 41 48 34 32 31 32 36 37 39 40 40 38 37 35 35 36 33 30
21 25 27 33 38 38 34 37 39 39 34 37 40 41 45 39 31 30 30 36 34 38 39 39 42 39 37 35 35 34 31 30
20 27 32 39 39 34 34 40 40 35 36 37 43 44 45 36 28 29 35 32 37 38 39 39 39 37 37 34 34 32 31 29
28 29 33 34 30 33 38 41 38 37 37 43 44 40 31 30 29 34 29 33 37 38 38 38 35 35 34 32 33 30 29 27
22 25 25 26 29 34 40 39 38 39 40 42 40 33 25 27 31 28 31 35 37 38 37 36 35 35 34 32 31 29 27 27
18 21 27 29 32 37 39 39 39 41 44 41 38 31 31 30 25 29 32 36 39 39 34 33 35 35 34 32 29 28 27 25

GFSFLT1_700_spd_051.txt.gz
Wind_Speed
10 7 4 4 5 5 6 6 7 11 12 16 16 13 13 16 17 17 19 22 22 23 25 24 25 28 31 32 36 37 36 36
11 14 13 11 7 9 7 10 12 15 18 19 15 12 12 12 9 11 13 15 21 23 26 26 28 32 33 35 36 36 35 35
18 19 20 18 14 12 12 15 16 19 21 17 13 13 12 10 13 13 15 18 22 24 27 28 26 28 32 35 36 36 35 36
23 23 26 25 22 19 17 19 20 23 18 14 12 12 11 13 15 16 18 21 23 25 24 27 31 30 32 34 35 35 36 34
24 23 25 29 27 23 22 21 25 21 15 13 13 13 16 17 19 18 16 19 20 23 25 28 32 31 31 33 33 35 36 38
27 27 25 28 30 25 24 27 23 18 15 13 14 18 21 20 21 21 23 25 27 30 34 33 33 32 33 35 36 37 38 39
29 27 25 21 21 25 27 25 20 17 14 15 17 20 22 24 24 26 27 29 36 38 39 39 37 36 36 37 37 37 38 38
30 30 29 29 22 19 22 21 17 12 15 18 18 21 22 24 26 28 29 31 38 41 36 34 34 35 36 38 38 39 39 39
36 36 37 35 25 18 19 19 16 15 16 20 20 21 24 27 31 31 33 37 39 39 31 31 34 33 35 37 39 40 39 37
33 33 29 23 18 17 19 22 22 20 21 21 23 23 25 29 31 36 40 42 45 38 29 33 33 33 35 38 39 40 38 36
21 22 22 21 18 17 21 25 27 27 28 27 28 27 29 34 34 37 39 43 47 35 29 31 32 35 36 39 40 39 38 36
15 18 21 22 21 21 21 25 28 28 29 31 35 35 35 34 41 37 45 43 39 31 31 32 34 35 38 39 40 39 37 36
15 16 20 25 25 24 23 25 27 32 35 38 39 40 41 38 43 41 46 37 32 32 32 33 34 37 38 38 38 38 37 34
21 20 20 25 27 29 30 32 33 34 37 41 41 43 42 44 39 48 43 37 32 30 38 31 35 39 37 35 35 35 33 32
20 22 21 25 33 31 32 34 36 40 43 42 42 45 43 43 46 43 37 32 30 39 28 31 36 38 39 36 35 35 33 32
17 21 24 27 30 33 37 40 40 42 39 41 43 42 45 44 46 35 34 31 33 26 29 32 36 38 37 34 33 35 34 32
19 23 25 28 31 35 39 40 41 38 38 42 44 45 51 40 36 31 32 33 24 27 29 34 37 36 34 32 32 32 31 29
20 19 22 28 33 38 36 36 38 41 42 44 46 49 45 43 34 32 31 24 25 29 32 34 35 34 33 32 31 31 30 28
17 20 25 28 32 34 37 40 41 44 46 47 47 49 46 40 33 26 22 26 29 34 35 33 32 32 32 32 32 30 28 27

GFSFLT1_700_spd_054.txt.gz
Wind_Speed
10 13 14 11 7 5 4 1 3 5 7 9 11 11 9 11 15 19 18 18 18 20 22 22 24 26 28 30 33 34 35 38
8 9 9 10 11 9 7 8 9 11 11 12 13 11 11 12 15 16 14 16 17 18 20 24 27 30 32 31 33 35 38 39
13 12 13 9 10 12 12 11 12 14 14 15 16 14 13 15 15 15 16 17 17 19 24 28 30 32 31 34 34 36 36 37
17 18 15 14 13 14 15 15 14 17 18 19 16 15 14 13 15 16 16 18 21 25 26 25 24 27 29 33 34 36 36 36
18 17 18 17 19 21 22 21 18 19 22 20 16 14 13 15 16 17 19 22 23 24 26 29 31 29 31 31 33 35 36 37
23 24 21 19 19 24 25 24 21 23 24 18 17 16 15 17 18 18 22 24 25 27 30 29 35 39 35 34 36 37 37 38
26 24 24 22 21 28 20 26 28 26 20 17 19 20 17 18 19 21 24 26 30 30 35 38 46 41 33 37 38 39 39 40
29 27 27 25 26 28 22 25 25 22 19 18 18 18 19 20 22 25 29 31 33 34 36 42 48 42 36 35 39 40 41 41
24 26 26 26 26 25 30 28 22 21 20 20 19 20 23 26 29 30 34 37 36 30 39 42 41 43 36 36 40 42 42 40
23 27 28 24 29 32 31 25 23 23 23 21 22 24 28 31 35 38 36 41 32 46 46 44 48 44 33 37 41 41 39 40
23 26 26 29 32 28 24 23 23 24 23 24 26 30 33 32 35 37 41 50 39 46 42 52 40 39 40 38 39 38 38 39
15 16 17 19 20 21 21 19 19 21 24 26 30 36 35 34 42 49 40 54 41 41 50 37 36 37 39 33 34 37 38 40
9 9 11 13 15 17 20 19 21 21 22 25 33 31 40 44 39 56 43 50 56 51 44 35 38 38 27 32 34 38 39 39
14 16 17 18 19 15 21 26 29 31 25 31 31 35 38 39 43 44 51 50 53 45 39 41 38 31 32 33 37 38 38 38
17 19 21 21 20 24 26 31 29 32 35 32 37 42 37 40 42 50 50 53 47 43 41 39 30 25 31 36 39 39 39 38
17 19 21 23 26 27 28 32 33 32 31 37 38 40 38 44 53 49 53 48 46 39 27 21 24 31 36 38 38 37 36 36
19 19 21 24 26 28 28 30 32 30 33 37 37 41 45 42 51 52 54 45 32 20 21 23 28 34 36 37 36 35 34 34
19 21 21 20 19 23 26 32 35 37 38 39 42 45 47 52 56 48 33 33 21 22 23 28 32 33 35 35 35 35 34 33
15 17 17 19 23 26 30 32 34 35 37 42 44 47 50 53 44 39 28 21 20 22 27 30 32 33 35 36 35 34 34 33

GFSFLT1_700_spd_057.txt.gz
Wind_Speed
15 16 17 16 16 15 13 10 8 5 4 2 3 5 6 8 10 13 16 19 18 18 18 18 20 23 26 28 30 33 34 35
14 15 15 15 13 10 9 7 5 4 3 5 8 9 10 10 12 15 17 16 17 19 19 21 24 27 32 34 36 36 35 37
13 13 12 10 11 8 8 8 7 7 8 10 11 14 14 14 15 16 17 18 20 19 21 24 26 30 31 31 33 34 36 37
4 7 8 8 8 8 10 11 13 13 14 15 15 15 16 15 16 16 18 20 20 22 24 26 27 30 32 34 36 37 37 39
10 7 5 5 4 6 12 14 17 19 19 19 17 17 17 16 17 18 17 18 21 24 26 27 28 32 34 39 38 39 38 38
15 14 12 10 9 9 12 15 19 21 22 21 20 19 18 18 17 16 18 21 24 26 28 28 32 31 34 35 38 37 40 49
20 17 18 20 17 14 17 16 16 19 24 24 24 18 20 18 17 18 22 26 30 33 34 39 35 43 38 47 47 38 44 44
26 25 21 21 22 21 18 19 16 18 20 24 20 18 18 20 19 24 28 32 34 40 41 45 34 47 41 40 47 46 42 41
27 27 25 21 24 24 21 21 23 23 24 22 20 19 20 21 24 29 31 31 38 44 44 42 46 47 45 51 52 47 39 43
23 21 23 20 25 24 23 23 25 29 24 21 22 23 25 26 30 25 33 35 38 37 41 48 50 43 43 49 44 42 43 45
19 19 15 16 21 25 25 30 31 26 20 20 24 28 31 27 29 35 37 34 54 42 56 50 41 46 49 44 44 46 40 40
19 16 12 13 20 25 26 26 25 22 22 24 24 20 22 24 26 30 38 43 43 39 46 45 50 53 49 42 43 40 36 34
6 3 5 9 11 12 14 16 19 19 21 23 27 27 25 29 31 37 30 36 47 41 46 50 51 45 44 40 33 29 32 36
9 9 11 14 16 18 19 17 19 21 25 27 29 29 30 30 36 36 42 40 44 46 49 49 44 43 36 29 28 31 34 39
14 16 17 18 22 24 26 23 25 29 24 31 28 29 29 30 31 40 41 43 44 52 50 41 38 31 26 29 32 35 38 40
17 18 21 23 23 25 26 27 29 32 34 35 33 32 31 33 35 40 43 50 50 45 37 36 26 24 27 32 35 37 39 41
19 19 21 24 25 25 25 26 30 31 35 34 34 35 36 36 40 46 49 50 37 39 35 24 24 27 30 34 36 39 41 41
18 19 22 22 21 20 20 21 22 25 30 31 32 35 38 41 44 48 53 40 45 34 22 25 27 28 33 36 38 40 41 41
17 16 17 17 16 17 20 23 24 25 28 31 33 37 40 42 52 45 38 45 32 25 26 27 30 31 35 37 40 42 42 41

GFSFLT1_700_spd_060.txt.gz
Wind_Speed
13 15 16 17 16 17 17 16 15 14 12 9 7 5 5 7 9 9 11 14 15 15 15 15 15 17 20 23 27 31 33 34
14 16 17 17 17 16 15 14 13 10 7 4 3 3 5 7 9 10 12 14 15 14 16 17 17 19 22 26 29 31 33 36
16 16 15 14 14 13 13 10 9 8 6 7 7 8 8 10 10 10 13 15 14 15 17 19 20 23 26 29 32 35 34 38
14 12 11 12 11 9 10 9 9 8 10 12 12 11 10 10 9 11 14 16 16 18 21 23 25 27 30 32 32 30 33 38
14 11 11 8 9 11 12 13 10 11 15 17 15 14 14 14 13 14 17 18 20 21 24 26 28 31 33 35 37 38 36 39
13 9 6 9 8 8 10 11 11 12 16 18 17 17 17 21 18 16 17 19 22 24 28 30 33 36 40 43 34 35 40 42
16 15 14 13 13 16 14 13 13 14 15 14 17 20 23 22 19 17 19 23 26 28 31 34 35 42 49 49 36 45 38 43
21 18 16 16 14 14 17 20 12 15 15 14 16 20 23 21 19 20 24 27 29 33 36 32 38 45 48 44 51 46 46 46
21 19 17 14 20 14 15 21 16 17 20 17 20 18 19 22 21 23 27 30 30 32 27 40 34 31 35 45 52 47 47 52
14 16 16 14 14 16 19 20 20 21 21 23 22 18 20 22 24 27 31 24 27 36 36 37 40 47 41 44 47 47 46 44
10 9 12 11 12 15 19 20 22 25 28 24 21 20 21 23 23 26 27 28 30 30 30 39 38 41 42 45 47 43 41 39
8 11 14 12 13 16 17 21 23 25 23 21 20 20 20 21 24 26 27 29 37 31 32 36 42 46 43 47 44 41 35 32
5 5 6 7 9 11 11 13 14 14 15 16 16 20 21 24 23 25 38 28 32 38 34 41 46 45 49 40 39 34 31 32
7 7 9 9 10 12 16 18 20 18 17 19 22 21 27 29 19 26 28 32 35 35 44 36 46 53 42 36 32 29 32 32
14 13 14 15 15 18 20 23 23 25 26 28 30 32 35 41 26 30 31 37 36 32 45 49 48 41 39 34 30 32 32 34
18 17 18 18 21 23 24 25 25 26 28 27 30 32 40 25 31 40 44 35 45 47 52 40 42 40 33 29 32 33 34 36
21 21 21 22 23 25 26 25 26 27 26 25 26 27 32 37 38 33 43 46 48 48 44 45 38 33 29 31 34 35 37 40
21 19 19 21 22 23 24 23 23 23 23 25 25 29 31 35 38 35 42 49 36 39 43 40 33 30 31 34 36 39 41 43
17 19 21 21 21 20 19 21 22 24 22 24 27 29 33 35 43 45 37 37 46 42 34 34 32 31 34 37 40 43 45 46

GFSFLT1_700_spd_063.txt.gz
Wind_Speed
13 16 17 17 15 16 17 17 18 19 18 16 15 12 11 12 12 11 11 11 12 14 13 12 13 14 15 17 20 22 23 28
15 15 15 15 16 16 15 14 14 14 13 11 10 9 10 10 10 11 12 11 12 14 12 14 17 16 18 21 23 25 28 31
20 22 22 19 17 16 16 16 15 13 13 12 11 11 9 9 10 11 12 12 13 14 15 19 19 21 22 24 26 29 31 32
16 18 17 17 16 16 15 14 14 13 12 11 11 10 9 8 9 13 16 15 15 16 19 21 22 22 24 26 31 36 38 38
15 14 13 12 13 14 14 14 14 14 14 14 14 14 13 12 13 19 20 16 16 19 21 23 24 25 27 30 33 36 43 46
16 15 15 13 15 14 14 15 16 17 17 16 17 19 18 17 20 21 22 18 17 21 23 25 27 28 30 35 37 41 38 39
19 19 18 17 18 17 15 14 17 18 19 18 16 17 18 21 22 25 24 21 20 23 27 29 30 32 35 40 36 31 34 35
23 21 20 21 21 19 18 16 16 13 23 20 15 14 15 21 23 28 25 23 22 25 28 30 29 31 31 40 31 39 34 37
22 23 23 20 16 20 18 11 13 18 15 17 21 18 23 21 25 25 23 24 23 22 16 24 31 29 31 32 40 42 36 43
16 18 19 19 18 18 20 18 16 20 23 20 20 22 22 21 22 22 22 23 25 27 27 32 37 30 33 31 38 42 39 43
12 13 15 15 15 16 18 19 19 21 24 25 24 23 22 21 23 23 21 18 27 32 28 30 31 31 31 30 34 38 51 37
8 12 12 13 16 19 21 21 21 22 23 23 21 21 21 21 20 22 24 26 27 36 36 28 34 35 38 41 35 41 38 35
6 6 9 9 8 11 15 17 17 18 18 14 16 17 14 17 19 22 26 26 27 25 36 29 36 30 29 42 46 38 38 34
10 7 7 7 9 10 10 12 14 17 19 22 22 22 22 23 25 27 30 25 26 34 38 34 34 31 41 42 42 39 36 33
15 14 15 13 12 11 13 17 19 20 22 24 24 24 26 28 32 23 38 32 27 40 37 36 39 41 37 42 37 35 33 31
19 19 19 18 17 17 19 21 22 23 24 24 24 25 26 27 25 33 33 28 30 36 34 37 38 39 42 38 35 32 32 34
19 22 23 22 22 23 23 24 26 28 28 28 29 29 28 24 21 35 33 43 33 38 35 33 43 38 34 32 31 33 34 37
23 22 22 21 23 23 24 25 26 28 27 26 26 26 23 22 28 30 38 35 37 29 38 40 38 34 31 32 32 35 38 41
18 17 18 20 21 21 22 22 23 24 26 27 26 22 21 29 31 33 35 30 33 40 38 34 34 31 31 33 35 39 43 45

GFSFLT1_700_spd_069.txt.gz
Wind_Speed
7 9 9 10 11 16 16 16 17 18 18 19 20 21 22 22 21 21 21 19 18 18 19 18 18 18 16 15 16 16 17 17
7 9 11 12 12 12 14 16 15 16 18 19 20 20 20 21 20 19 20 21 20 19 20 19 19 17 17 16 17 18 18 18
9 11 10 10 12 15 16 16 18 18 17 17 17 17 17 18 18 19 20 20 20 20 22 21 20 19 17 17 19 20 21 21
11 12 12 15 17 17 17 17 18 17 18 18 17 18 18 19 17 18 18 20 21 22 23 24 24 21 19 19 21 22 26 25
16 15 16 16 17 18 17 17 18 18 18 18 18 18 17 16 16 18 20 22 23 23 26 28 27 24 23 23 24 24 25 32
17 16 16 16 18 19 19 19 19 20 19 20 19 19 19 20 22 21 23 24 25 25 26 26 28 26 25 26 26 27 26 31
19 19 19 20 21 22 21 22 22 22 21 21 21 22 22 23 23 24 30 29 30 31 29 30 31 29 29 29 28 29 27 34
24 25 25 25 24 24 24 24 23 21 21 21 21 22 24 24 24 25 28 26 30 32 34 33 36 31 33 31 30 28 32 35
29 28 28 26 27 28 26 25 24 22 18 17 19 19 24 28 27 27 28 28 32 38 38 37 37 34 36 35 32 34 40 34
24 28 28 27 29 29 26 25 25 26 25 23 22 23 24 28 19 24 25 33 35 41 41 40 34 36 40 36 38 43 35 36
14 22 28 29 28 30 29 28 29 28 29 23 25 26 26 28 29 32 32 34 35 37 39 41 34 34 35 38 39 34 38 41
6 12 21 26 31 35 36 33 31 32 32 33 32 32 33 32 32 32 34 34 33 41 37 36 32 38 40 38 39 34 41 35
7 8 13 19 23 27 30 32 31 30 31 35 35 33 32 31 32 31 31 29 29 29 29 35 41 37 32 34 38 38 36 33
9 10 12 15 21 25 25 25 26 28 32 37 31 28 28 29 29 28 29 31 32 33 31 39 32 31 34 23 28 36 35 38
11 11 14 15 18 22 25 24 25 26 27 26 26 26 27 27 29 30 31 31 30 31 30 33 34 34 29 30 33 35 38 38
18 16 18 20 20 24 23 23 24 24 24 25 26 25 27 29 31 32 32 33 31 33 30 35 34 30 28 35 37 37 39 35
19 21 23 28 26 30 27 28 28 28 28 27 28 29 31 33 33 34 33 32 30 31 31 32 31 29 30 35 36 34 31 31
24 26 29 28 28 29 30 29 29 29 32 32 32 33 33 34 33 31 31 32 30 27 29 33 33 33 35 35 33 33 33 34
30 31 33 31 30 29 27 27 28 27 27 27 28 29 29 29 30 32 30 28 30 32 32 31 32 33 32 32 33 33 35 36

GFSFLT1_700_spd_072.txt.gz
Wind_Speed
4 8 15 19 23 27 24 27 24 22 20 20 22 27 26 25 22 19 19 19 17 17 17 17 16 19 18 17 14 14 14 16
3 3 6 11 15 15 19 19 18 18 18 16 19 18 18 17 17 18 18 18 18 20 21 19 19 20 19 17 17 17 17 17
6 5 6 5 10 15 15 17 17 15 15 14 15 16 16 16 19 19 19 20 20 20 22 21 21 22 22 19 19 20 21 19
6 6 5 10 12 12 14 14 16 15 15 15 15 16 17 19 18 19 19 19 20 21 23 24 22 25 25 23 24 23 23 23
9 8 10 10 13 14 12 11 12 15 14 16 17 16 15 15 15 15 17 19 21 23 24 27 27 26 29 27 28 26 26 31
10 12 11 12 12 12 13 15 17 15 15 15 16 16 16 17 17 15 18 20 22 25 27 28 26 27 29 32 32 29 29 31
14 12 13 13 14 15 16 17 17 18 17 21 18 17 18 20 20 21 19 19 24 23 31 27 30 34 35 31 36 33 32 31
19 20 20 18 19 19 19 19 20 21 18 16 18 19 20 23 25 25 21 23 23 21 18 24 32 36 37 41 38 38 35 33
24 24 27 25 23 23 23 23 23 23 22 19 16 18 20 20 22 22 24 31 26 29 28 31 36 39 42 43 48 41 36 35
24 29 28 31 28 26 26 25 24 25 24 23 21 20 22 23 24 24 23 22 23 26 30 36 39 40 45 45 34 41 40 36
14 24 27 31 31 30 26 27 26 26 27 27 27 25 27 28 27 26 26 28 31 33 33 33 33 40 43 39 36 31 35 39
7 17 22 28 29 30 31 28 28 31 33 34 31 31 32 34 32 30 31 33 32 33 31 29 30 32 29 35 36 32 38 33
8 7 10 23 25 27 31 29 36 34 35 37 33 37 35 33 34 32 30 31 32 32 32 32 35 28 34 27 34 27 31 31
12 12 10 15 17 25 33 32 37 28 26 33 34 34 29 30 30 29 29 31 32 33 33 34 31 35 30 36 32 30 29 29
12 15 15 12 12 18 21 29 29 29 25 29 29 27 29 28 26 28 28 30 32 33 34 33 35 32 35 36 35 29 28 33
12 13 18 21 21 21 18 20 22 23 24 25 27 27 27 26 27 27 32 33 35 35 35 34 37 37 34 33 29 28 30 33
16 15 21 25 29 23 22 25 25 27 27 27 29 27 29 27 32 34 35 35 35 36 35 35 35 34 34 31 28 29 30 30
21 22 29 34 31 26 25 24 28 30 30 30 30 32 32 34 35 37 36 35 33 32 34 32 30 33 30 28 30 30 30 31
28 30 33 35 34 35 34 29 27 30 31 32 35 35 34 33 33 32 31 31 33 33 30 32 31 33 31 30 30 31 31 32

GFSFLT1_700_spd_075.txt.gz
Wind_Speed
8 16 21 17 13 14 15 16 19 21 21 22 26 29 32 36 35 33 33 27 24 22 20 17 16 14 15 14 16 16 16 16
2 7 15 18 24 29 30 30 26 24 25 27 28 31 31 34 33 29 25 25 24 21 20 18 16 16 16 18 19 18 18 18
4 2 8 13 15 16 18 19 17 17 16 16 17 18 16 15 17 22 26 23 21 21 20 18 19 20 21 21 22 21 22 23
8 5 6 8 11 12 13 14 14 12 13 15 18 19 20 22 21 20 19 19 19 20 21 20 20 21 23 24 24 25 26 27
3 8 9 10 9 11 11 12 13 13 12 13 13 12 12 11 10 12 16 18 17 17 20 23 22 23 27 27 24 31 32 35
3 5 8 10 12 13 13 13 12 13 12 12 13 13 11 12 12 13 14 15 16 16 18 22 24 25 28 31 30 25 35 37
7 6 10 11 12 13 15 14 14 15 14 14 13 10 12 16 14 14 14 17 17 18 21 22 23 23 31 32 32 32 40 39
12 11 12 15 16 15 15 14 12 12 13 10 11 12 15 15 19 15 17 18 20 20 20 19 22 23 25 30 33 35 42 44
16 17 16 13 17 18 19 17 14 16 15 14 14 15 17 19 19 21 19 19 16 18 23 23 24 28 30 34 33 37 43 40
18 20 22 21 19 16 19 20 18 20 21 20 19 23 20 21 22 22 20 21 19 20 19 25 28 29 30 27 30 32 35 40
14 19 24 26 26 21 16 13 20 23 25 25 25 25 27 25 26 28 25 23 22 23 26 27 27 27 25 28 26 28 29 31
18 21 19 25 28 25 22 21 20 23 24 30 31 31 32 32 34 35 27 27 25 28 29 28 28 28 30 30 27 31 27 31
11 9 22 18 26 30 28 27 28 28 23 25 30 33 38 37 35 38 26 24 29 31 30 30 30 30 30 35 31 30 26 31
17 17 11 17 20 19 23 26 26 26 26 23 30 28 29 27 28 23 25 27 29 27 29 30 31 32 31 34 34 32 33 34
19 17 16 13 16 19 22 24 25 26 24 26 27 27 29 25 27 28 28 25 24 27 32 33 34 34 32 34 33 37 35 31
16 18 19 22 19 17 17 20 21 21 24 25 23 24 24 25 28 27 27 27 29 33 35 37 35 34 34 34 33 34 29 25
19 24 21 23 23 24 22 22 23 23 23 24 26 27 28 28 29 30 31 31 34 36 37 35 33 34 34 35 30 30 27 27
20 24 24 28 33 30 28 26 24 26 27 27 29 30 31 32 31 32 33 36 36 33 31 32 33 35 34 29 28 27 28 28
23 25 29 32 34 34 32 31 30 31 34 31 32 32 32 30 33 35 32 30 30 31 32 35 35 32 27 27 27 28 28 27

GFSFLT1_700_spd_078.txt.gz
Wind_Speed
10 15 16 10 12 12 16 20 18 18 24 20 23 19 21 28 25 24 36 33 35 30 26 20 18 15 14 13 12 13 14 14
4 7 12 17 12 12 10 12 19 24 25 22 23 21 28 25 29 41 39 39 35 32 26 24 19 16 15 15 15 15 16 17
2 5 5 13 17 24 25 25 25 24 21 22 21 22 26 31 34 37 39 38 36 31 27 24 20 19 18 17 18 18 19 21
2 4 7 8 10 12 16 17 17 20 23 24 26 27 27 28 29 33 35 34 32 25 22 22 20 20 20 20 21 22 22 23
2 2 5 8 9 10 10 11 13 15 16 18 17 16 18 20 23 25 27 26 24 22 21 21 20 20 19 21 23 24 25 26
4 4 6 6 7 9 10 10 12 13 14 14 14 13 13 14 17 19 20 21 22 20 20 19 17 17 18 20 25 24 26 33
6 10 11 10 11 12 13 13 13 11 11 12 13 13 13 14 14 14 16 16 16 17 19 19 20 19 17 21 21 25 25 27
12 12 11 11 12 13 14 14 13 11 11 13 14 14 15 15 17 15 16 16 16 18 21 23 23 19 22 23 24 25 28 29
17 13 10 11 14 14 15 15 16 15 14 12 12 16 16 15 16 16 18 20 21 20 23 18 20 21 21 21 24 27 28 26
15 13 13 13 13 14 15 18 17 18 17 16 16 17 18 18 19 20 21 22 24 25 24 24 23 24 22 22 24 26 22 23
17 19 18 17 18 16 16 13 17 18 21 21 22 21 23 23 24 27 29 28 32 29 28 28 27 26 25 25 26 26 21 29
12 16 20 22 21 23 22 19 16 18 18 19 22 23 25 28 31 32 34 38 38 39 32 23 29 28 26 28 27 26 28 29
13 12 11 16 22 21 25 25 24 21 19 18 22 26 27 27 30 34 36 45 33 21 15 26 26 25 28 30 28 29 31 31
15 15 13 14 16 19 19 18 21 25 25 26 27 27 29 30 33 29 31 29 18 19 19 24 25 26 31 31 31 33 33 35
14 18 18 17 16 15 17 17 17 19 22 25 26 27 28 28 30 30 30 27 23 23 23 26 27 30 33 35 35 34 33 32
18 21 23 20 19 18 15 13 14 16 20 21 23 26 26 24 25 27 27 28 27 26 27 29 32 35 37 37 33 35 30 34
20 18 19 23 21 22 23 22 22 18 19 23 23 25 26 27 28 30 30 29 29 30 32 35 39 40 40 39 33 32 33 34
18 15 17 17 23 26 27 27 26 24 22 22 24 26 29 32 32 32 32 33 34 35 38 41 40 36 33 32 32 35 31 29
17 15 18 21 23 27 29 30 31 32 29 29 31 33 34 36 35 34 35 35 36 37 35 33 30 28 31 32 31 29 30 32

GFSFLT1_700_spd_081.txt.gz
Wind_Speed
9 13 10 13 17 19 19 19 17 15 18 27 14 30 41 45 29 40 39 38 39 42 31 29 28 21 20 19 15 14 13 11
5 9 17 10 16 13 18 20 16 20 18 32 15 26 37 30 23 41 42 43 42 35 32 30 23 22 20 19 19 17 14 14
7 5 13 23 21 17 13 19 20 22 19 20 16 20 19 23 30 39 23 34 38 37 32 25 24 25 22 22 21 17 18 18
5 3 8 10 16 19 22 21 22 23 23 23 23 22 22 24 27 30 31 38 40 36 32 27 28 27 25 23 22 21 21 22
4 6 5 4 6 8 11 15 20 23 24 24 23 24 24 24 24 28 35 36 37 35 34 31 28 30 26 23 23 22 23 23
3 2 2 4 4 4 5 8 12 14 17 18 16 15 18 20 21 23 27 30 31 30 31 29 31 28 26 25 24 23 23 27
3 6 6 4 6 6 8 8 8 9 11 13 13 15 16 17 19 19 21 24 24 26 28 31 28 27 24 23 26 26 24 25
8 6 6 6 6 7 9 9 7 7 7 8 9 10 11 13 15 15 18 19 20 20 23 25 25 25 24 26 28 27 27 26
12 9 7 7 7 9 10 11 10 10 10 9 9 12 11 13 15 17 19 19 19 21 23 24 25 26 26 30 29 27 26 26
14 12 12 12 12 10 11 14 14 13 12 13 14 15 16 16 17 19 19 20 22 24 26 28 32 35 35 32 33 30 28 28
15 15 13 14 15 15 14 16 19 19 19 19 17 18 19 19 21 23 23 25 26 28 30 34 37 39 43 32 35 31 27 31
9 9 8 13 20 22 20 18 17 22 22 17 20 21 24 25 27 29 30 32 32 40 37 38 47 44 40 35 35 24 27 32
7 9 5 9 6 11 17 18 22 23 18 20 22 19 22 21 26 28 30 31 33 37 34 20 15 14 21 21 21 28 34 32
13 11 11 11 11 11 11 13 15 17 22 24 26 23 24 19 19 25 30 32 37 28 22 21 20 22 23 24 30 34 33 34
15 13 11 12 12 12 11 11 9 10 15 19 21 24 23 22 22 23 27 28 30 30 26 25 26 27 26 28 32 34 36 37
18 15 14 15 17 15 15 14 11 14 15 16 18 19 20 22 23 26 27 27 27 26 27 29 29 30 30 35 36 37 38 34
21 19 15 13 13 15 16 19 20 19 19 19 19 22 23 24 25 27 29 30 29 30 31 31 32 33 34 38 37 30 32 36
20 21 16 15 15 14 16 19 20 21 22 22 23 24 25 27 28 31 33 36 35 34 34 35 36 34 34 33 33 33 35 36
20 20 19 17 17 19 21 21 20 22 24 27 27 27 28 30 33 35 37 37 37 37 37 37 37 33 32 30 32 33 34 40

GFSFLT1_700_spd_087.txt.gz
Wind_Speed
12 13 21 6 14 17 11 12 13 8 16 21 18 18 30 40 44 48 48 43 38 36 35 27 19 20 19 17 18 13 13 13
12 12 20 4 16 13 12 12 11 17 11 13 13 13 24 33 40 47 47 43 40 42 36 31 28 24 20 19 17 15 15 15
9 9 14 8 15 12 11 17 12 14 14 13 15 18 22 35 34 38 48 55 51 44 42 29 29 28 25 19 19 17 18 18
5 7 9 10 4 11 13 13 19 19 16 16 14 19 22 30 36 36 40 39 42 42 39 30 29 32 30 21 21 22 21 22
1 2 4 6 6 7 2 13 15 20 19 22 17 17 15 22 31 33 37 31 30 35 33 33 33 31 27 26 27 27 25 25
3 1 0 4 6 8 10 8 9 19 19 21 21 25 18 18 20 29 29 25 38 35 35 34 34 35 31 30 29 31 27 28
5 3 2 2 5 7 10 11 11 11 11 13 17 19 17 21 24 25 25 28 33 35 37 36 34 40 38 34 35 34 31 32
9 6 5 5 5 6 7 11 12 13 13 14 15 16 16 18 19 19 24 27 31 33 30 31 36 37 37 36 41 37 35 37
15 10 8 8 7 7 8 8 10 12 12 12 13 15 15 15 16 16 18 20 21 24 27 32 35 38 39 40 43 40 40 40
16 16 12 9 9 9 9 10 11 11 12 12 12 12 13 15 16 17 19 20 21 25 28 31 34 35 39 42 43 43 45 45
20 19 17 14 12 11 11 11 11 13 14 13 12 11 11 13 15 16 18 19 23 26 29 32 36 39 43 45 47 46 46 45
12 21 20 18 17 16 15 13 13 16 16 17 17 16 16 16 17 19 21 22 24 28 31 33 36 40 47 50 47 43 35 39
10 12 16 15 15 16 17 19 20 18 17 19 20 20 21 23 22 22 23 24 27 29 32 35 38 41 38 47 34 21 28 32
13 12 11 12 10 10 9 13 16 21 21 20 20 24 23 23 17 20 20 23 29 31 36 40 41 44 41 43 33 23 27 28
16 15 11 10 10 10 6 7 10 15 18 19 21 22 22 19 22 27 27 30 31 30 28 28 29 29 29 30 30 29 30 31
21 20 19 12 12 12 11 9 9 11 12 10 10 12 14 18 23 26 28 29 30 31 31 30 29 29 29 28 28 30 33 35
22 22 20 22 16 15 14 14 12 11 12 12 14 16 17 17 21 23 25 26 27 28 30 30 31 32 32 32 33 35 36 37
24 22 23 24 23 21 18 17 16 17 17 18 19 19 22 21 23 25 25 26 28 29 30 31 33 36 38 38 37 39 39 37
34 27 30 25 27 28 25 24 23 20 20 20 22 23 24 26 26 28 28 30 31 32 33 36 39 41 40 36 31 32 30 32

GFSFLT1_700_spd_090.txt.gz
Wind_Speed
15 16 22 24 9 16 12 9 10 6 6 9 21 29 32 45 44 43 47 44 40 37 33 32 30 27 22 18 15 15 15 13
12 13 17 14 10 12 17 8 12 6 13 19 18 27 29 34 40 40 39 45 44 43 36 36 35 32 24 20 18 19 17 15
10 10 12 12 3 10 9 9 12 12 9 15 13 10 23 29 40 38 43 49 52 49 46 39 35 31 29 25 22 19 21 17
8 7 7 8 6 5 7 10 13 11 16 15 17 18 18 27 32 33 42 44 48 47 37 36 37 32 28 23 23 20 21 20
6 5 4 4 5 4 2 10 14 15 15 16 15 13 18 20 25 30 30 34 42 43 45 40 36 38 32 28 24 23 23 23
8 3 3 2 2 5 6 4 11 18 21 21 17 15 19 17 20 27 30 39 45 45 48 45 45 40 31 31 31 30 28 27
10 6 3 1 2 4 5 8 10 12 14 15 18 21 22 17 20 28 28 29 31 31 37 45 44 36 35 32 33 33 33 30
13 9 7 5 4 5 6 7 8 11 13 12 13 15 23 19 20 23 27 30 31 30 31 35 38 38 37 36 38 39 38 36
17 11 10 9 7 6 7 9 10 9 10 13 14 16 16 19 20 22 23 26 28 27 36 37 35 36 37 38 39 42 42 43
17 14 9 10 9 8 8 7 9 11 11 10 10 12 14 14 17 19 18 19 22 23 26 26 29 32 35 39 41 43 46 46
20 17 12 11 11 11 11 11 11 11 12 12 12 12 12 13 13 13 13 15 17 20 23 26 30 32 33 37 39 41 45 47
20 23 22 19 15 16 14 14 15 15 16 16 16 15 15 16 16 16 16 18 20 22 24 27 29 31 34 38 41 44 50 54
18 19 27 25 21 20 19 19 17 16 19 20 19 19 19 19 18 18 19 20 22 23 25 28 30 32 35 39 42 49 54 51
16 12 17 25 20 19 21 23 23 24 23 22 24 25 25 24 23 22 22 21 21 25 26 28 30 33 37 40 43 49 50 43
19 18 18 19 20 18 18 18 20 21 25 28 27 25 25 28 27 24 23 21 24 29 30 34 36 39 41 39 38 36 37 37
23 21 20 17 18 17 19 16 16 18 21 23 23 24 25 27 29 25 28 31 31 30 35 37 36 40 39 39 37 36 36 36
20 26 27 24 21 19 19 21 17 17 17 20 20 20 21 21 24 26 30 33 37 37 36 36 36 38 38 38 39 40 39 41
25 21 22 26 24 27 25 24 23 21 19 20 19 19 21 23 25 25 26 30 32 32 33 34 36 37 37 38 39 41 43 43
30 29 29 27 25 30 31 28 28 25 25 24 24 24 26 26 28 31 30 30 32 34 35 35 37 38 38 40 41 43 38 38

GFSFLT1_700_spd_093.txt.gz
Wind_Speed
17 19 19 23 17 9 8 9 10 10 8 11 9 11 29 34 41 38 43 49 43 38 34 29 32 31 29 26 23 17 10 6
17 15 17 18 10 10 12 6 9 5 5 5 10 7 23 35 38 44 54 47 38 38 33 36 34 32 29 26 23 21 7 13
17 13 12 12 9 3 11 10 9 8 4 5 6 10 25 21 44 50 47 41 46 40 38 38 36 37 36 35 28 24 20 16
16 11 8 7 7 4 7 9 8 8 7 10 13 13 20 25 39 46 42 39 47 49 50 46 44 39 40 36 23 32 21 16
17 10 6 5 4 4 8 10 12 10 10 11 13 11 9 14 25 27 30 33 50 56 58 44 40 40 36 39 33 27 21 26
17 10 6 3 1 3 4 6 14 15 14 10 14 13 16 15 15 17 18 22 28 38 46 51 38 43 38 38 31 27 24 26
19 11 7 4 1 0 2 3 6 18 20 17 18 13 17 19 18 22 24 21 17 21 34 45 40 33 35 38 36 35 31 31
19 13 10 6 4 2 2 3 5 7 14 17 18 18 19 17 15 17 21 24 23 27 34 37 41 40 38 37 35 35 33 34
21 16 13 10 8 5 4 4 5 8 9 10 11 15 15 19 19 18 20 23 21 18 27 36 38 38 43 43 39 38 37 38
19 20 14 12 11 8 6 6 7 7 8 11 12 11 10 13 17 18 21 20 24 27 25 28 34 31 33 35 38 38 39 37
17 21 17 11 11 11 10 9 9 10 9 9 10 11 11 10 11 13 16 18 20 24 26 30 27 29 32 32 35 36 37 36
20 22 20 16 12 12 13 12 12 11 12 12 11 12 12 12 11 12 14 15 18 20 21 22 24 25 26 28 30 31 35 37
22 24 24 23 21 18 14 16 15 14 14 14 14 15 14 15 14 15 15 15 16 16 18 19 22 23 25 28 29 31 35 38
19 24 24 23 29 25 19 19 19 18 17 17 19 19 19 18 19 19 20 20 20 21 22 23 24 25 27 29 31 34 37 40
15 22 21 19 22 29 21 21 23 24 25 25 24 23 24 24 23 23 23 22 23 23 23 23 25 27 30 32 35 38 39 41
14 21 22 21 20 23 24 23 22 22 23 25 27 28 26 26 27 28 28 28 26 25 26 27 27 29 32 36 39 39 41 43
15 17 21 24 22 23 24 22 21 20 19 20 23 25 28 27 28 27 29 29 29 32 34 34 35 37 38 38 38 39 39 41
21 20 16 23 26 27 28 24 26 24 21 20 20 22 22 22 23 24 26 30 33 32 32 35 39 41 38 36 36 39 41 43
21 19 26 33 32 26 32 33 29 29 27 25 22 22 21 22 25 27 28 30 31 30 31 33 36 38 39 39 39 42 43 45

GFSFLT1_700_spd_096.txt.gz
Wind_Speed
26 17 20 21 23 16 4 6 8 7 9 13 22 28 29 30 36 39 41 38 41 42 36 35 35 35 33 29 25 23 19 16
28 16 17 18 18 11 4 3 3 5 8 9 15 26 28 36 38 41 43 43 44 45 43 38 28 27 30 28 28 27 25 21
30 14 15 16 13 9 2 11 7 7 7 6 9 15 17 26 34 37 46 48 45 44 41 34 30 29 31 31 31 29 27 20
30 15 13 12 11 9 4 7 11 6 6 5 12 12 17 24 18 38 40 46 41 44 47 39 32 34 35 34 34 33 29 24
29 19 11 9 8 7 5 6 9 7 5 5 7 7 13 21 16 29 36 43 47 52 36 41 45 44 40 39 38 31 28 30
30 19 11 8 5 6 7 6 5 9 9 9 11 12 15 18 19 23 38 40 38 35 32 37 47 42 39 37 35 41 40 28
31 19 12 9 5 3 6 6 4 9 12 9 8 12 12 13 16 20 22 22 21 19 22 33 45 40 38 43 37 34 30 34
30 16 13 10 7 3 2 3 3 3 10 12 10 11 8 11 13 14 16 14 11 8 17 24 34 38 44 33 28 31 32 33
25 15 14 12 9 7 4 2 1 3 5 8 10 9 9 12 12 12 11 10 12 11 14 17 32 34 28 30 35 33 30 34
21 20 15 13 10 8 7 6 5 5 6 6 6 7 8 8 11 15 15 15 14 14 12 19 21 28 30 35 36 31 32 33
20 22 15 14 11 11 9 7 8 8 8 8 8 8 8 8 10 10 11 12 17 20 20 18 21 25 25 23 25 29 32 32
22 21 15 17 12 10 11 9 8 7 8 8 8 9 9 8 8 10 11 12 14 15 17 20 20 18 17 21 25 29 29 30
19 20 22 17 16 14 11 10 10 8 8 10 10 11 12 11 11 11 11 11 12 13 13 14 16 18 21 26 26 27 28 28
13 18 24 21 20 20 18 16 14 12 12 12 13 14 14 14 13 13 13 13 13 14 14 15 17 20 22 24 26 27 28 29
8 15 22 26 23 18 23 24 20 20 18 17 17 17 17 18 18 18 18 18 18 18 19 20 21 22 24 25 26 27 28 30
6 11 18 25 29 24 19 23 24 23 24 23 22 22 22 21 22 22 21 22 22 23 23 23 24 24 28 27 27 27 28 32
13 14 14 22 24 24 20 20 22 21 22 20 20 20 22 23 25 24 24 25 25 26 26 27 29 30 29 28 30 32 34 36
15 14 22 15 23 24 24 22 23 22 22 20 18 18 20 22 24 25 26 27 27 30 30 30 31 33 33 32 34 37 35 34
22 24 11 17 20 20 23 22 27 28 26 26 24 22 19 21 23 25 27 25 25 26 29 32 34 34 32 33 34 36 36 36

GFSFLT1_700_spd_102.txt.gz
Wind_Speed
27 24 23 19 17 25 25 20 12 7 7 8 11 17 15 13 29 30 31 52 48 43 39 35 37 38 37 36 34 32 30 29
29 26 27 20 17 23 22 19 13 9 8 9 10 12 17 14 20 40 47 43 48 43 37 37 39 37 37 37 35 33 34 32
34 30 28 19 17 21 21 17 14 14 10 10 10 13 20 18 28 42 43 41 50 42 38 37 38 39 39 40 38 36 34 33
31 35 28 20 16 20 20 17 13 14 12 12 11 12 19 24 29 29 51 36 43 44 39 37 39 39 38 40 38 35 33 32
35 27 28 21 17 20 18 17 12 12 14 11 12 12 18 32 32 30 40 39 46 44 42 37 38 38 40 39 36 33 31 32
34 28 25 22 17 17 15 15 11 9 11 8 7 8 14 25 36 37 38 35 38 37 43 44 43 45 40 36 35 34 33 32
29 26 27 19 21 17 12 13 9 6 12 8 6 6 9 18 24 35 37 38 41 41 39 38 40 37 39 38 38 35 35 31
27 28 25 19 21 16 10 10 5 3 11 11 9 11 12 14 19 22 36 36 38 35 41 35 37 33 43 48 36 45 38 37
28 28 23 19 19 15 10 7 3 2 7 12 10 11 12 14 24 17 23 26 37 35 32 32 51 31 34 41 31 41 40 41
20 20 23 18 17 16 12 10 6 5 6 9 10 10 10 8 15 20 27 27 31 37 36 27 37 37 33 41 31 33 41 39
15 13 16 17 18 17 15 12 9 8 7 6 7 7 8 8 13 16 20 27 23 40 34 23 21 24 25 26 28 34 38 39
25 9 10 13 20 18 15 13 10 7 8 8 6 6 5 5 7 13 17 22 22 30 28 21 17 22 30 27 23 30 34 33
34 24 8 8 20 18 14 13 10 9 9 7 8 8 9 9 9 10 15 22 26 34 33 28 24 23 25 27 27 29 32 32
20 32 27 15 13 20 17 14 12 11 10 9 8 7 8 10 10 11 11 13 15 22 24 26 29 27 29 28 28 28 31 30
16 19 32 27 21 15 17 16 16 15 13 11 9 7 7 10 12 13 13 13 14 15 16 16 17 19 21 23 25 26 28 29
12 8 23 28 26 23 20 16 14 13 21 17 14 13 14 13 15 15 16 17 18 19 19 20 21 22 21 22 25 27 30 31
4 9 8 19 21 21 21 21 18 15 14 20 24 21 19 19 19 19 20 20 21 22 24 25 25 26 27 28 30 31 32 32
15 2 7 2 9 20 21 21 19 15 16 18 21 26 24 23 23 23 23 24 24 26 27 27 27 27 28 29 30 31 32 33
17 20 11 11 11 15 20 23 25 24 21 17 17 23 24 25 27 27 27 28 29 29 29 29 29 28 27 28 29 32 34 36

GFSFLT1_700_spd_108.txt.gz
Wind_Speed
23 25 19 19 20 22 23 23 24 25 27 24 20 16 17 16 17 17 18 30 36 46 41 48 33 36 36 41 38 34 32 31
26 26 23 22 20 22 21 22 24 25 27 23 22 18 19 18 19 17 17 22 29 35 52 39 47 46 45 38 39 37 35 33
27 29 26 23 19 21 23 23 24 25 28 23 24 20 21 21 20 16 16 15 21 35 42 42 41 41 51 45 43 42 38 34
23 28 23 21 21 24 25 27 24 25 27 23 23 20 21 21 23 21 19 21 19 34 35 34 45 49 49 44 43 40 38 36
32 29 25 23 22 23 24 26 24 24 26 22 24 19 20 21 24 23 22 21 20 36 36 43 47 47 45 45 44 41 37 33
36 29 24 27 26 26 25 21 22 23 24 22 23 16 18 20 24 24 19 23 27 42 42 43 42 41 43 43 42 39 36 33
38 31 29 25 17 21 22 21 21 22 19 21 19 14 15 17 19 20 18 18 31 51 47 44 42 39 39 38 39 36 34 31
28 37 32 29 19 20 23 21 19 20 17 18 15 13 13 12 13 15 11 25 32 53 50 46 43 40 37 39 38 37 34 33
24 34 32 31 28 23 23 19 18 17 15 15 14 12 12 10 7 14 14 19 37 37 50 45 45 46 45 40 39 41 37 36
21 32 32 32 34 27 24 20 17 15 12 11 11 10 10 11 7 9 19 15 41 23 41 36 44 47 47 51 48 43 43 50
22 24 30 33 37 32 25 21 19 14 9 6 7 8 10 9 9 9 16 20 28 32 25 26 27 21 29 36 39 43 53 49
13 16 15 28 33 29 25 23 21 14 8 5 6 6 7 8 8 8 14 16 22 29 26 26 30 21 20 24 27 27 23 35
9 4 11 20 27 28 25 25 21 16 11 8 6 6 5 5 6 6 8 12 19 21 30 28 34 33 29 14 35 36 18 31
15 3 12 17 27 28 24 24 22 17 15 12 9 8 7 6 4 3 5 6 10 19 26 24 21 31 29 14 21 36 26 30
20 12 1 10 26 27 24 25 23 20 18 16 13 11 10 9 9 7 5 6 7 9 15 25 31 23 35 28 19 26 21 30
11 18 18 6 18 26 22 23 22 22 21 19 16 14 13 12 12 10 9 9 9 8 7 7 18 24 32 25 29 26 26 29
6 9 7 15 5 19 24 21 20 21 22 21 19 18 17 15 14 14 13 13 12 12 13 13 12 14 22 27 32 32 30 30
14 20 10 7 6 2 31 27 15 18 22 21 18 21 21 20 20 19 18 17 17 17 17 18 19 21 22 25 26 26 28 30
9 10 14 16 10 7 9 41 28 16 18 23 18 16 18 17 19 23 23 23 22 22 22 22 23 25 27 29 30 32 32 33

GFSFLT1_700_spd_111.txt.gz
Wind_Speed
25 26 26 26 24 24 26 26 24 26 24 23 22 24 16 17 14 17 19 21 28 28 36 38 36 32 33 35 32 35 32 32
25 28 26 27 25 22 24 26 25 25 23 22 21 25 18 19 16 17 23 18 23 27 49 44 43 38 34 32 32 34 36 37
28 28 29 29 29 27 26 25 23 24 23 22 22 25 21 20 18 18 24 23 19 27 37 46 46 42 40 40 35 44 38 38
33 32 33 32 31 26 26 25 25 26 24 23 22 25 22 22 16 18 21 22 28 23 39 46 52 45 41 39 39 44 39 39
31 32 33 29 27 24 26 25 24 26 25 22 22 25 22 19 17 19 22 23 24 30 26 43 45 50 46 41 39 40 39 37
27 29 33 30 29 28 26 28 31 25 22 21 22 23 21 17 19 21 24 24 25 19 25 33 42 52 49 44 43 46 38 35
19 26 32 32 31 25 26 28 28 23 19 18 21 20 18 16 18 20 23 24 25 25 25 32 38 39 48 46 43 42 37 34
12 18 28 33 34 27 20 24 25 20 17 18 19 16 14 15 15 16 16 18 23 17 29 34 30 42 43 39 41 39 36 34
16 17 21 29 36 30 25 22 23 19 17 18 17 12 11 12 12 14 12 12 20 22 33 30 32 34 37 39 37 36 34 33
18 20 22 26 34 35 30 23 22 20 16 17 14 11 11 7 9 11 9 9 12 19 30 35 37 37 39 39 38 37 37 38
22 25 24 26 32 36 32 24 25 20 17 17 13 11 7 5 5 6 8 13 11 26 24 40 44 44 45 45 44 41 43 46
20 23 22 23 31 34 30 29 28 22 18 17 13 10 7 4 3 2 7 10 10 28 29 24 42 40 34 38 45 49 47 43
23 22 18 17 23 30 26 34 27 21 20 18 13 11 8 6 4 5 10 8 12 18 31 32 20 19 20 17 12 18 30 29
19 16 12 9 13 19 28 30 25 20 20 18 15 12 10 8 6 6 9 14 16 16 26 30 34 23 35 25 16 13 24 29
14 15 6 1 9 19 28 26 23 22 22 20 16 13 11 10 8 7 7 11 14 17 23 22 22 29 25 34 26 18 16 35
10 6 7 11 7 16 20 23 21 22 23 21 19 17 15 13 11 9 8 8 11 14 16 22 26 29 25 19 29 24 11 21
8 14 26 4 14 12 16 17 21 23 22 22 19 17 15 14 13 12 11 9 8 9 12 14 18 28 31 25 26 16 28 24
10 7 14 14 4 10 9 18 15 14 19 21 20 17 16 15 14 14 13 12 12 11 10 11 11 11 20 26 27 26 26 34
8 5 7 15 16 20 11 6 18 17 15 16 15 15 14 10 10 14 14 14 14 16 16 16 16 16 17 22 28 31 32 36

GFSFLT1_700_spd_114.txt.gz
Wind_Speed
24 28 29 28 26 25 24 26 28 27 27 25 25 22 20 20 19 17 16 19 24 28 34 41 35 34 33 31 30 38 32 30
27 30 30 28 28 27 28 27 30 29 28 25 23 23 22 21 20 18 19 22 23 23 25 37 40 40 37 33 29 36 33 35
29 31 33 29 30 29 30 26 30 29 27 25 24 24 22 22 22 21 21 23 27 25 28 34 37 44 42 38 36 35 36 37
32 32 33 33 30 30 31 31 30 28 25 26 25 23 23 23 22 21 20 24 27 29 28 37 36 47 47 41 43 38 37 38
29 28 32 35 34 33 33 32 30 30 27 26 25 23 22 23 24 20 21 24 24 30 34 31 27 46 51 40 42 44 41 38
22 24 27 33 36 33 32 30 30 29 28 26 24 24 23 24 24 18 19 25 27 28 32 34 34 46 45 44 49 48 42 40
12 14 22 28 33 32 33 31 30 30 31 29 25 22 22 24 21 17 19 23 25 30 33 33 35 41 49 47 50 45 44 43
10 10 18 23 27 28 35 33 30 29 33 29 24 21 21 22 18 18 19 22 25 30 28 30 36 36 46 56 49 49 38 38
5 7 11 14 18 24 35 33 27 27 28 26 23 21 20 19 17 16 19 21 17 20 23 25 30 34 41 48 49 48 36 37
15 15 13 12 16 21 30 35 31 26 26 27 22 19 18 17 15 15 17 16 15 17 24 25 29 34 34 43 51 52 43 39
15 16 17 16 14 19 27 35 35 29 27 26 21 18 16 16 13 15 13 10 11 16 15 29 28 31 40 38 35 40 40 41
14 22 22 19 15 16 24 34 36 31 31 26 21 16 15 15 13 14 11 10 14 15 17 28 30 32 32 30 35 39 42 41
20 19 21 19 16 17 23 29 35 33 30 26 21 17 15 15 13 12 10 10 11 15 16 26 28 29 34 42 37 35 38 36
16 19 20 19 18 17 20 28 32 33 30 24 21 17 15 15 13 11 10 11 13 13 23 24 21 20 35 28 41 39 39 44
13 16 15 17 13 9 17 21 25 31 29 25 24 20 17 16 13 11 9 11 12 13 18 31 24 22 18 19 28 21 17 19
8 9 6 10 12 12 15 21 28 28 25 29 25 21 20 19 15 12 9 9 11 14 17 20 25 28 32 27 26 35 25 20
3 8 8 10 14 17 19 24 29 27 31 28 23 23 21 20 17 15 13 10 10 10 12 17 25 28 27 29 24 36 30 17
5 6 4 8 6 5 17 24 28 33 32 25 24 23 22 21 19 18 16 13 12 11 11 10 10 15 25 28 28 25 32 34
4 6 5 8 6 6 9 15 17 18 26 26 26 25 23 22 22 20 18 16 14 13 12 12 12 12 11 16 26 30 29 27

GFSFLT1_700_spd_117.txt.gz
Wind_Speed
23 25 25 24 27 35 35 34 30 29 31 29 28 28 24 23 22 21 21 19 18 21 27 30 33 31 30 32 30 29 32 31
25 25 25 27 30 37 34 33 29 29 31 30 28 27 24 24 24 22 23 22 21 22 25 30 34 35 36 35 31 31 30 31
26 25 27 30 34 35 35 32 31 30 30 29 31 29 26 26 26 24 23 25 24 24 27 29 33 34 38 39 39 35 32 38
26 26 27 33 35 36 35 33 32 32 29 32 33 31 29 27 24 25 26 27 25 26 29 29 32 30 37 38 37 40 36 37
27 28 27 26 33 36 38 34 33 32 30 31 31 30 27 25 26 26 26 28 26 27 28 31 32 31 44 37 40 38 40 39
19 19 20 22 26 36 35 35 35 33 33 32 31 30 27 27 26 27 26 28 26 26 28 28 34 30 35 33 40 44 41 40
11 13 19 20 30 32 30 34 36 33 34 33 32 30 28 26 25 27 26 27 26 26 25 28 33 34 34 37 46 49 48 45
6 7 15 20 26 27 27 31 36 32 32 32 31 29 28 26 26 26 27 27 26 25 27 32 32 33 34 39 40 54 50 50
8 7 9 13 16 25 25 30 36 34 31 30 30 29 28 27 25 26 27 27 26 27 28 31 31 32 36 42 38 56 52 52
9 10 9 12 12 16 24 29 32 35 33 31 30 27 28 25 24 25 26 26 24 26 25 23 32 35 33 36 38 48 54 51
8 9 10 14 14 13 18 25 28 34 34 30 28 27 28 25 23 24 24 24 23 24 26 24 26 30 35 34 32 41 54 56
9 9 14 13 14 16 16 21 26 31 35 30 29 30 27 23 22 23 22 22 22 23 20 21 17 29 27 29 30 33 41 51
8 14 16 15 14 15 16 19 25 30 32 32 31 31 27 23 21 22 20 20 21 22 22 18 17 23 28 31 28 33 39 40
12 14 13 16 15 14 15 20 24 29 32 34 33 32 26 22 22 22 17 18 18 20 16 14 17 25 20 21 28 32 37 34
9 12 15 15 13 9 12 16 22 25 32 35 36 31 27 22 23 19 16 16 15 14 16 9 14 18 16 24 27 31 34 33
10 11 11 13 15 10 14 16 21 26 32 34 34 31 27 22 25 19 16 14 11 12 14 16 18 18 11 8 17 14 27 27
7 8 11 11 13 10 16 21 24 25 30 36 32 31 25 27 27 20 18 14 11 9 8 12 16 23 23 23 17 17 22 23
8 8 9 8 9 10 17 20 26 25 29 33 34 30 25 31 27 23 20 16 12 9 7 6 11 15 19 22 26 30 25 27
10 7 8 10 11 14 12 15 20 27 33 32 30 27 31 33 28 25 22 20 16 13 10 8 6 7 12 21 20 27 32 31

GFSFLT1_700_spd_123.txt.gz
Wind_Speed
36 29 35 32 32 33 36 38 38 36 31 35 29 30 29 27 25 25 22 17 15 15 18 17 15 16 21 24 25 24 21 20
30 25 31 32 33 34 38 40 40 40 40 40 31 28 26 26 26 27 26 22 19 17 18 19 16 18 19 23 24 25 24 23
30 27 30 31 38 41 39 44 44 42 42 42 36 28 26 26 27 30 28 25 23 20 20 20 19 16 21 25 27 29 28 26
32 30 22 32 32 37 41 40 39 40 41 43 41 33 29 27 30 31 30 28 26 22 23 22 22 19 20 24 26 29 31 30
29 33 31 29 34 37 39 40 41 40 42 46 41 33 30 26 28 31 32 29 27 27 25 24 24 21 19 24 27 28 33 34
40 31 31 37 38 37 38 39 41 44 45 47 44 35 30 29 30 34 34 30 30 30 27 26 25 22 20 23 28 30 33 32
28 40 30 33 31 35 41 43 43 45 46 44 42 34 32 30 30 32 33 32 32 31 28 27 26 22 21 22 27 31 34 30
36 38 34 36 38 35 34 37 41 42 43 39 35 34 34 30 31 30 32 32 31 30 27 28 27 22 22 24 28 33 35 35
33 34 40 43 37 35 32 31 35 40 38 30 32 33 34 32 32 32 31 31 31 30 28 29 27 23 24 27 28 34 37 36
35 38 37 39 39 37 37 37 40 40 36 33 33 33 34 33 32 33 30 31 32 31 28 28 26 24 26 29 31 35 38 38
29 29 30 30 25 26 26 27 30 32 31 32 33 32 33 33 29 31 29 30 32 29 27 29 25 25 26 27 31 30 38 42
22 22 19 20 19 18 21 25 26 26 28 30 33 33 32 32 31 30 31 33 32 27 28 28 24 25 24 24 25 27 29 35
23 22 22 17 14 16 18 21 23 26 27 30 31 33 34 35 34 35 35 34 31 29 29 25 23 24 22 23 28 30 31 38
22 21 14 10 12 14 17 20 22 24 26 29 29 31 36 34 35 35 34 33 29 28 27 23 22 21 21 22 25 29 31 40
18 15 11 9 8 9 11 12 16 19 23 25 27 30 37 40 35 34 33 31 29 27 24 22 18 17 18 17 16 20 23 28
25 14 10 5 3 6 8 9 7 8 11 19 25 27 28 31 33 30 33 32 28 26 22 19 15 13 10 8 11 17 18 28
21 12 7 4 1 5 8 7 6 6 8 11 20 29 32 33 30 29 33 31 27 25 22 15 14 14 14 12 7 4 6 25
12 8 4 3 6 6 7 9 10 8 16 16 17 18 24 33 33 33 35 31 27 25 21 14 15 15 15 16 12 4 2 4
6 2 3 4 10 9 9 10 10 9 8 11 16 18 22 24 29 32 28 27 27 27 20 16 17 16 13 15 16 9 11 8

GFSFLT1_700_spd_129.txt.gz
Wind_Speed
39 39 43 50 45 42 37 36 37 35 33 34 29 26 25 22 21 24 24 25 25 22 19 15 12 9 8 13 19 22 23 23
45 42 37 47 46 42 48 44 40 38 40 38 35 33 28 27 22 19 25 28 27 27 24 21 17 13 11 11 15 20 25 26
49 44 42 37 52 49 42 53 50 48 47 44 39 34 31 31 30 23 21 27 31 30 28 25 22 18 16 14 13 19 24 27
52 49 46 39 38 46 43 45 52 55 55 47 44 41 39 37 34 28 23 24 29 31 31 28 26 23 20 17 15 16 21 27
50 45 45 42 36 34 42 46 44 53 52 54 47 41 42 39 33 27 22 23 27 27 31 31 30 27 24 20 18 17 19 24
49 39 40 43 36 39 31 39 44 42 48 46 41 42 39 39 35 26 25 24 26 28 30 33 32 30 27 23 21 20 20 23
31 34 29 43 50 47 29 30 37 42 45 42 39 37 38 36 35 30 26 28 31 31 30 35 34 32 30 25 23 23 22 25
25 29 33 42 38 45 30 22 28 39 40 41 39 36 32 28 28 27 27 30 32 32 30 33 35 34 32 28 26 25 25 25
26 27 31 48 32 34 35 26 24 37 27 31 31 28 28 31 28 27 29 32 33 33 30 32 35 35 33 30 28 27 27 27
27 23 29 39 40 37 46 36 28 30 38 31 31 31 30 30 31 29 32 34 33 34 32 32 36 36 33 31 28 28 28 28
7 11 18 33 44 36 37 38 34 31 30 33 31 28 31 34 34 33 33 32 34 36 31 31 34 34 33 29 28 28 28 29
13 18 20 27 33 34 34 33 35 32 31 28 27 28 32 34 35 35 32 31 34 36 31 30 31 30 29 29 28 28 30 30
12 15 15 17 23 21 24 25 24 27 27 28 29 33 33 35 35 32 32 36 37 34 30 29 28 28 29 27 28 28 29 31
12 16 17 16 12 12 11 15 18 22 24 25 28 30 30 31 32 29 29 31 31 31 28 29 27 25 26 27 28 28 30 31
20 24 21 13 18 19 17 18 19 20 22 24 26 28 31 30 26 27 30 28 30 26 26 30 27 29 27 27 28 29 30 31
23 21 18 15 13 16 14 11 10 10 13 17 23 27 29 31 31 30 27 30 26 28 30 31 31 32 28 28 29 29 30 29
8 22 24 17 14 12 11 6 2 2 6 7 12 15 15 18 17 23 19 27 23 31 34 30 32 29 30 28 29 29 29 28
14 16 21 16 10 9 9 6 4 2 3 4 6 9 13 17 18 22 24 26 24 26 28 35 31 28 28 28 29 28 29 27
11 15 14 10 8 6 5 3 1 1 2 3 5 11 14 20 19 25 26 26 34 27 24 29 32 30 28 29 29 29 28 24

GFSFLT1_700_spd_132.txt.gz
Wind_Speed
55 50 50 44 43 44 44 45 42 40 44 39 35 31 29 26 22 23 25 24 24 23 20 18 16 11 9 9 12 19 23 24
59 60 53 51 45 39 45 48 45 39 47 45 42 39 35 30 25 23 21 24 26 26 24 23 21 17 12 11 11 14 20 24
48 60 60 56 48 40 41 43 46 47 40 46 45 40 40 33 27 27 24 20 21 27 27 26 25 23 19 16 14 13 15 21
51 49 61 59 52 42 35 42 41 47 47 44 43 43 42 40 34 29 28 26 23 22 28 29 28 27 24 21 18 16 15 17
49 51 52 60 53 44 39 34 40 45 47 51 51 48 45 41 32 34 32 32 27 21 23 26 31 31 28 26 22 19 19 18
41 40 44 51 48 45 38 39 35 46 48 45 53 56 49 40 36 39 35 33 30 24 23 26 29 31 32 30 26 23 21 21
22 20 18 22 35 27 37 36 31 41 52 47 47 53 53 48 44 43 38 35 32 27 23 25 29 30 33 33 28 26 24 23
8 11 11 21 25 27 36 39 38 36 43 45 41 43 40 41 41 41 41 37 36 31 28 26 27 30 33 34 31 29 28 24
8 9 15 26 29 28 26 36 42 34 36 40 41 36 43 39 39 39 38 35 36 32 28 28 29 30 32 35 34 32 30 27
15 6 10 21 26 28 29 31 39 31 24 26 36 41 43 39 36 39 33 32 38 31 29 30 31 31 33 35 36 33 31 29
13 6 4 18 24 30 32 22 43 29 26 29 28 38 38 41 34 36 37 37 35 32 30 31 30 31 33 36 37 34 32 30
8 8 13 8 16 31 32 26 46 23 25 29 36 33 37 32 31 31 34 36 32 29 28 30 30 31 33 34 35 33 31 30
5 15 16 11 16 19 27 20 30 31 20 28 30 35 40 39 29 31 33 32 29 27 27 29 29 31 31 32 33 32 31 30
5 5 25 16 14 15 25 26 24 22 25 24 25 24 23 22 26 31 33 31 29 28 31 32 27 30 29 29 29 30 30 30
18 20 22 11 12 7 13 10 10 15 14 20 22 22 19 27 30 33 31 31 31 29 28 28 27 25 28 27 26 28 29 29
19 18 18 14 8 9 6 8 11 9 10 13 18 23 26 28 27 28 27 24 25 26 24 25 23 26 21 27 25 27 28 28
21 19 18 21 18 15 14 11 10 10 9 9 10 14 19 24 25 26 28 26 24 24 26 27 30 23 25 29 28 26 28 29
19 19 14 17 16 15 10 8 8 6 4 5 4 5 8 12 11 13 20 23 21 21 26 27 22 24 32 32 26 26 28 28
16 13 15 15 15 11 7 4 2 0 1 3 4 7 8 11 16 14 18 18 23 17 20 22 27 26 29 29 30 30 28 28

GFSFLT1_700_spd_135.txt.gz
Wind_Speed
37 43 55 58 54 53 51 52 51 51 42 43 44 41 40 33 33 32 30 28 26 24 22 19 16 13 9 6 6 12 17 23
46 46 47 55 55 58 57 53 54 57 50 51 51 47 44 36 32 30 30 29 30 28 27 25 22 19 15 13 9 8 11 17
54 55 48 53 57 52 61 58 55 60 57 50 48 44 46 39 35 33 31 28 27 28 29 28 26 23 21 19 15 12 11 11
49 54 50 51 58 54 57 61 54 58 61 53 48 42 50 46 43 38 32 30 27 24 23 28 29 27 25 23 21 19 15 14
48 44 46 45 49 56 48 58 55 49 59 56 52 45 51 52 46 41 37 35 32 29 26 24 29 30 29 27 25 24 21 18
44 40 40 37 37 46 44 54 52 45 54 60 55 49 46 50 49 44 41 37 36 32 29 26 26 28 29 30 30 29 26 23
44 30 31 29 32 39 33 52 46 44 44 49 54 49 49 51 46 45 44 38 40 36 33 30 28 28 30 29 31 32 30 27
35 28 21 18 21 28 35 46 43 43 39 40 60 51 46 47 50 47 44 44 42 39 35 32 32 27 26 30 30 33 32 31
33 21 15 11 17 31 36 41 36 36 41 40 42 49 48 45 44 48 52 48 41 41 38 35 34 33 30 30 30 31 35 34
31 16 8 3 13 26 31 34 35 37 34 34 42 43 48 48 47 51 47 47 47 43 42 38 36 37 35 32 33 33 35 36
26 14 2 12 14 22 23 32 33 31 34 40 38 38 44 49 52 48 44 43 45 43 42 40 41 40 35 35 35 33 34 36
27 18 11 2 12 18 22 30 27 29 36 44 42 38 38 53 51 48 47 46 45 42 43 44 41 39 37 36 34 33 35 36
29 15 14 11 10 13 23 31 28 32 37 43 47 39 27 28 34 39 38 46 46 42 47 38 36 37 35 31 33 32 34 36
25 19 16 25 18 12 24 28 23 31 35 40 39 47 34 28 30 30 39 39 46 51 41 35 31 30 28 28 31 32 33 34
28 23 28 26 21 19 20 20 19 22 36 33 39 46 45 30 30 27 34 43 50 55 31 30 32 29 29 25 25 28 30 32
32 25 25 24 24 18 15 14 16 16 21 21 14 10 9 7 13 19 24 29 29 35 30 32 30 33 28 30 25 26 26 26
33 26 19 30 29 22 18 17 15 12 12 12 12 15 23 23 27 25 21 19 20 26 29 30 28 30 28 27 28 22 29 23
31 26 19 16 26 23 16 13 12 11 11 11 10 12 22 30 31 29 27 27 28 29 27 27 25 26 29 24 26 28 21 29
26 24 21 19 15 19 18 12 8 5 5 4 5 8 10 9 14 16 15 26 32 27 27 27 28 27 29 33 27 26 28 30

GFSFLT1_700_spd_138.txt.gz
Wind_Speed
29 31 30 37 46 56 49 54 56 59 56 56 58 57 52 47 42 35 33 34 32 29 26 23 19 16 11 7 5 8 14 18
32 38 41 45 44 50 63 54 60 61 64 63 65 64 57 50 45 40 36 37 37 34 31 28 25 21 17 14 11 9 10 14
39 45 44 49 53 48 53 66 55 64 62 64 64 66 61 56 48 41 40 41 40 37 36 32 29 26 24 21 18 14 13 10
48 55 49 49 40 40 42 47 58 57 65 62 65 63 61 62 54 46 46 42 41 39 38 35 33 30 27 26 23 21 18 15
56 58 52 47 44 43 45 47 51 52 57 58 64 67 67 67 59 48 47 42 40 37 37 34 30 31 30 29 27 25 24 21
61 56 44 42 40 33 40 45 52 45 55 62 56 65 64 65 50 52 49 44 42 39 37 33 30 27 27 29 31 30 28 27
60 49 38 38 36 37 35 41 46 45 51 58 56 60 55 54 55 54 51 48 45 42 41 38 33 30 27 26 31 32 32 32
57 50 37 36 35 29 27 32 36 40 47 54 50 56 54 48 53 48 54 54 49 47 44 41 38 34 32 29 29 32 32 33
52 49 42 29 24 19 15 22 28 34 46 47 43 47 52 50 54 55 53 59 52 48 46 45 42 38 36 33 29 30 33 33
49 47 39 23 17 8 6 23 27 36 37 41 38 36 47 57 54 53 52 47 46 46 49 47 45 42 40 38 34 32 32 35
48 44 37 16 13 9 2 20 32 33 38 36 33 34 40 46 44 46 48 48 51 52 50 48 47 46 43 40 38 37 36 37
49 41 31 15 5 4 6 12 28 34 35 34 34 32 33 38 47 47 50 49 43 54 54 55 50 45 45 44 43 41 38 38
45 36 31 17 3 6 9 22 25 25 26 33 33 34 32 34 42 46 51 56 60 54 57 57 48 43 48 46 42 38 38 42
43 33 29 25 12 12 14 14 24 28 29 26 28 35 37 37 40 44 52 52 42 48 46 46 46 47 50 50 43 35 44 35
40 35 26 23 24 19 18 19 21 22 23 25 25 30 39 39 37 40 47 42 38 44 39 37 40 49 49 43 48 36 37 37
36 35 28 26 28 25 17 13 13 14 15 22 23 27 35 38 40 39 30 33 36 37 38 42 45 52 52 44 45 28 28 32
33 33 32 23 26 34 20 15 11 3 13 25 31 23 39 31 35 46 37 33 30 34 40 41 42 40 40 47 61 34 33 26
31 29 30 28 23 28 28 27 13 12 7 10 14 34 11 16 15 26 41 38 24 25 26 40 47 50 48 41 42 38 32 31
28 27 26 22 25 22 21 21 17 15 11 0 10 12 13 14 17 23 21 21 26 25 22 21 19 20 24 28 31 42 34 32

GFSFLT1_700_spd_141.txt.gz
Wind_Speed
24 24 27 35 35 39 40 43 50 50 57 56 58 55 62 61 57 52 44 39 35 32 29 26 23 19 15 10 7 9 15 20
24 30 34 40 43 50 43 47 50 57 55 62 60 62 59 66 65 59 51 44 41 38 34 31 28 25 21 16 14 11 10 14
34 35 41 46 50 56 53 46 48 57 55 58 63 62 64 62 68 66 58 48 44 42 40 37 32 31 27 23 20 17 15 13
40 43 45 53 53 50 42 43 47 51 67 45 52 59 60 61 64 65 65 54 47 45 42 42 36 35 32 28 25 23 20 18
40 45 49 53 48 45 44 43 42 42 49 56 49 52 56 65 56 61 67 60 53 47 43 44 40 38 37 32 30 28 26 24
45 48 52 54 48 45 45 44 36 37 40 56 48 50 52 59 61 54 63 65 57 47 47 45 44 40 38 36 33 33 30 27
46 50 53 51 49 38 40 39 38 39 41 49 50 46 49 59 68 62 54 64 58 50 46 46 45 38 37 34 34 33 32 32
50 53 57 52 49 33 37 39 37 35 39 41 47 48 54 51 71 71 59 52 57 53 47 47 44 36 36 36 32 32 31 32
48 51 55 52 48 32 35 34 31 23 28 30 42 41 53 46 60 62 60 55 53 55 47 44 42 40 39 38 34 31 30 31
47 49 52 50 47 29 24 26 19 15 19 24 32 41 51 46 50 55 52 58 53 45 47 45 45 44 42 40 37 34 33 30
45 48 50 46 44 28 21 19 12 15 14 20 19 31 33 37 44 49 53 54 54 57 45 48 47 46 45 43 40 38 36 34
44 47 46 42 38 23 18 14 6 5 9 15 24 33 29 32 35 32 63 45 45 39 45 45 53 50 47 45 43 42 39 38
41 43 43 38 34 14 13 13 3 3 10 16 22 27 26 32 37 39 21 38 41 39 56 52 50 51 45 44 43 43 42 42
39 39 39 36 31 16 3 12 7 6 8 11 16 19 24 24 26 30 29 30 33 39 42 50 53 53 55 54 48 47 47 48
37 36 34 34 27 22 8 9 8 11 14 17 18 19 21 23 24 28 27 31 36 35 40 46 47 48 55 56 50 47 53 53
36 35 34 31 27 23 16 7 7 12 12 13 19 21 23 25 27 29 29 27 30 34 34 40 39 35 42 52 52 52 52 54
34 32 30 30 29 25 23 25 9 13 12 16 16 18 21 25 25 28 31 36 34 33 40 34 35 38 41 43 46 49 52 47
32 32 30 30 24 26 21 26 27 15 2 9 19 23 27 28 22 25 31 32 42 36 39 37 40 38 39 42 44 45 46 48
29 29 28 28 24 21 21 16 19 18 16 12 10 19 17 14 23 22 17 33 39 38 45 26 31 37 36 37 39 45 48 42